Wetterdaten: Dienstag, 08.11.2022
Datum Zeit Temp. Aussen Temp. o. S. Temp +5cm Feuchte Auss Luftdruck Regen Sonnenschein Regendauer Solar Windben Empfang
08.11.2022 00:00 12,3 C 11,1 C 7,8 C 89 % 1011,9 hPa 0,0 l/m 0 min 0 min 0 W/m 6,4 km/h (2 Bft) 98,94 %
08.11.2022 00:02 12,3 C 11,1 C 7,8 C 89 % 1011,9 hPa 0,0 l/m 0 min 0 min 0 W/m 6,4 km/h (2 Bft) 100,00 %
08.11.2022 00:04 12,3 C 11,1 C 7,8 C 89 % 1011,9 hPa 0,0 l/m 0 min 0 min 0 W/m 12,9 km/h (3 Bft) 100,00 %
08.11.2022 00:07 12,2 C 11,1 C 7,8 C 89 % 1011,9 hPa 0,0 l/m 0 min 0 min 0 W/m 9,7 km/h (2 Bft) 97,14 %
08.11.2022 00:08 12,2 C 11,1 C 7,8 C 89 % 1011,9 hPa 0,0 l/m 0 min 0 min 0 W/m 6,4 km/h (2 Bft) 100,00 %
08.11.2022 00:12 12,2 C 11,1 C 7,8 C 89 % 1011,9 hPa 0,0 l/m 0 min 0 min 0 W/m 3,2 km/h (1 Bft) 95,56 %
08.11.2022 00:14 12,1 C 11,1 C 7,8 C 89 % 1011,9 hPa 0,0 l/m 0 min 0 min 0 W/m 6,4 km/h (2 Bft) 100,00 %
08.11.2022 00:16 12,1 C 11,1 C 7,8 C 89 % 1011,9 hPa 0,0 l/m 0 min 0 min 0 W/m 16,1 km/h (3 Bft) 97,87 %
08.11.2022 00:18 12,1 C 11,1 C 7,8 C 89 % 1011,8 hPa 0,0 l/m 0 min 0 min 0 W/m 12,9 km/h (3 Bft) 93,48 %
08.11.2022 00:20 12,1 C 11,1 C 7,8 C 90 % 1011,8 hPa 0,0 l/m 0 min 0 min 0 W/m 6,4 km/h (2 Bft) 100,00 %
08.11.2022 00:22 12,1 C 11,1 C 7,8 C 90 % 1011,8 hPa 0,0 l/m 0 min 0 min 0 W/m 12,9 km/h (3 Bft) 97,87 %
08.11.2022 00:24 12,0 C 11,1 C 7,8 C 90 % 1011,7 hPa 0,0 l/m 0 min 0 min 0 W/m 6,4 km/h (2 Bft) 97,87 %
08.11.2022 00:26 12,0 C 11,1 C 7,8 C 90 % 1011,8 hPa 0,0 l/m 0 min 0 min 0 W/m 3,2 km/h (1 Bft) 100,00 %
08.11.2022 00:28 11,9 C 10,6 C 7,8 C 90 % 1011,7 hPa 0,0 l/m 0 min 0 min 0 W/m 6,4 km/h (2 Bft) 100,00 %
08.11.2022 00:30 11,9 C 10,6 C 7,2 C 90 % 1011,7 hPa 0,0 l/m 0 min 0 min 0 W/m 6,4 km/h (2 Bft) 93,48 %
08.11.2022 00:32 11,8 C 10,6 C 7,2 C 89 % 1011,8 hPa 0,0 l/m 0 min 0 min 0 W/m 12,9 km/h (3 Bft) 97,87 %
08.11.2022 00:34 11,7 C 10,6 C 7,2 C 89 % 1011,8 hPa 0,0 l/m 0 min 0 min 0 W/m 6,4 km/h (2 Bft) 100,00 %
08.11.2022 00:36 11,7 C 10,0 C 7,2 C 90 % 1011,7 hPa 0,0 l/m 0 min 0 min 0 W/m 6,4 km/h (2 Bft) 98,31 %
08.11.2022 00:38 11,6 C 10,0 C 7,2 C 90 % 1011,6 hPa 0,0 l/m 0 min 0 min 0 W/m 3,2 km/h (1 Bft) 100,00 %
08.11.2022 00:40 11,6 C 10,0 C 7,2 C 90 % 1011,6 hPa 0,0 l/m 0 min 0 min 0 W/m 12,9 km/h (3 Bft) 100,00 %
08.11.2022 00:42 11,5 C 10,0 C 7,2 C 90 % 1011,6 hPa 0,0 l/m 0 min 0 min 0 W/m 6,4 km/h (2 Bft) 97,83 %
08.11.2022 00:44 11,4 C 10,0 C 7,2 C 90 % 1011,6 hPa 0,0 l/m 0 min 0 min 0 W/m 12,9 km/h (3 Bft) 100,00 %
08.11.2022 00:46 11,4 C 10,6 C 7,2 C 90 % 1011,7 hPa 0,0 l/m 0 min 0 min 0 W/m 12,9 km/h (3 Bft) 97,87 %
08.11.2022 00:48 11,4 C 10,6 C 7,2 C 90 % 1011,7 hPa 0,0 l/m 0 min 0 min 0 W/m 3,2 km/h (1 Bft) 97,87 %
08.11.2022 00:50 11,4 C 10,6 C 7,2 C 91 % 1011,7 hPa 0,0 l/m 0 min 0 min 0 W/m 6,4 km/h (2 Bft) 100,00 %
08.11.2022 00:52 11,4 C 10,6 C 7,2 C 91 % 1011,8 hPa 0,0 l/m 0 min 0 min 0 W/m 3,2 km/h (1 Bft) 97,87 %
08.11.2022 00:54 11,4 C 10,6 C 7,2 C 91 % 1011,7 hPa 0,0 l/m 0 min 0 min 0 W/m 9,7 km/h (2 Bft) 97,83 %
08.11.2022 00:56 11,4 C 10,6 C 7,2 C 91 % 1011,7 hPa 0,0 l/m 0 min 0 min 0 W/m 6,4 km/h (2 Bft) 100,00 %
08.11.2022 00:58 11,4 C 10,6 C 7,2 C 91 % 1011,7 hPa 0,0 l/m 0 min 0 min 0 W/m 6,4 km/h (2 Bft) 100,00 %
08.11.2022 01:00 11,4 C 10,6 C 7,2 C 91 % 1011,6 hPa 0,0 l/m 0 min 0 min 0 W/m 6,4 km/h (2 Bft) 97,87 %
08.11.2022 01:02 11,4 C 10,6 C 7,8 C 91 % 1011,7 hPa 0,0 l/m 0 min 0 min 0 W/m 6,4 km/h (2 Bft) 93,62 %
08.11.2022 01:04 11,4 C 10,6 C 7,8 C 91 % 1011,6 hPa 0,0 l/m 0 min 0 min 0 W/m 6,4 km/h (2 Bft) 97,87 %
08.11.2022 01:06 11,4 C 11,1 C 7,8 C 92 % 1011,6 hPa 0,0 l/m 0 min 0 min 0 W/m 3,2 km/h (1 Bft) 98,28 %
08.11.2022 01:08 11,4 C 11,1 C 7,8 C 92 % 1011,6 hPa 0,0 l/m 0 min 0 min 0 W/m 3,2 km/h (1 Bft) 100,00 %
08.11.2022 01:10 11,4 C 11,1 C 7,8 C 92 % 1011,6 hPa 0,0 l/m 0 min 0 min 0 W/m 6,4 km/h (2 Bft) 95,74 %
08.11.2022 01:12 11,5 C 11,1 C 7,8 C 92 % 1011,7 hPa 0,0 l/m 0 min 0 min 0 W/m 6,4 km/h (2 Bft) 95,74 %
08.11.2022 01:14 11,6 C 11,1 C 7,8 C 92 % 1011,7 hPa 0,0 l/m 0 min 0 min 0 W/m 19,3 km/h (3 Bft) 97,87 %
08.11.2022 01:16 11,6 C 11,1 C 7,8 C 92 % 1011,7 hPa 0,0 l/m 0 min 0 min 0 W/m 16,1 km/h (3 Bft) 95,74 %
08.11.2022 01:18 11,6 C 11,1 C 7,8 C 92 % 1011,6 hPa 0,0 l/m 0 min 0 min 0 W/m 19,3 km/h (3 Bft) 93,48 %
08.11.2022 01:20 11,7 C 11,1 C 7,8 C 92 % 1011,7 hPa 0,0 l/m 0 min 0 min 0 W/m 9,7 km/h (2 Bft) 97,87 %
08.11.2022 01:22 11,7 C 11,1 C 7,8 C 92 % 1011,7 hPa 0,0 l/m 0 min 0 min 0 W/m 16,1 km/h (3 Bft) 97,87 %
08.11.2022 01:24 11,8 C 11,7 C 7,8 C 92 % 1011,6 hPa 0,0 l/m 0 min 0 min 0 W/m 16,1 km/h (3 Bft) 95,74 %
08.11.2022 01:26 11,8 C 11,7 C 7,8 C 92 % 1011,7 hPa 0,0 l/m 0 min 0 min 0 W/m 6,4 km/h (2 Bft) 93,62 %
08.11.2022 01:28 11,8 C 11,7 C 7,8 C 92 % 1011,7 hPa 0,0 l/m 0 min 0 min 0 W/m 9,7 km/h (2 Bft) 93,62 %
08.11.2022 01:30 11,9 C 11,7 C 8,3 C 91 % 1011,7 hPa 0,0 l/m 0 min 0 min 0 W/m 6,4 km/h (2 Bft) 95,65 %
08.11.2022 01:32 11,9 C 11,7 C 7,8 C 91 % 1011,8 hPa 0,0 l/m 0 min 0 min 0 W/m 6,4 km/h (2 Bft) 97,87 %
08.11.2022 01:34 11,9 C 11,7 C 7,8 C 91 % 1011,7 hPa 0,0 l/m 0 min 0 min 0 W/m 12,9 km/h (3 Bft) 95,74 %
08.11.2022 01:36 11,9 C 11,1 C 7,8 C 91 % 1011,8 hPa 0,0 l/m 0 min 0 min 0 W/m 6,4 km/h (2 Bft) 96,61 %
08.11.2022 01:38 11,9 C 11,1 C 7,8 C 91 % 1011,6 hPa 0,0 l/m 0 min 0 min 0 W/m 12,9 km/h (3 Bft) 97,14 %
08.11.2022 01:40 11,9 C 11,1 C 7,8 C 91 % 1011,7 hPa 0,0 l/m 0 min 0 min 0 W/m 16,1 km/h (3 Bft) 97,87 %
08.11.2022 01:42 11,9 C 11,1 C 7,8 C 91 % 1011,6 hPa 0,0 l/m 0 min 0 min 0 W/m 3,2 km/h (1 Bft) 100,00 %
08.11.2022 01:44 11,9 C 11,1 C 7,8 C 91 % 1011,7 hPa 0,0 l/m 0 min 0 min 0 W/m 12,9 km/h (3 Bft) 100,00 %
08.11.2022 01:46 11,9 C 11,1 C 7,8 C 91 % 1011,7 hPa 0,0 l/m 0 min 0 min 0 W/m 6,4 km/h (2 Bft) 97,87 %
08.11.2022 01:48 11,9 C 11,1 C 7,8 C 91 % 1011,7 hPa 0,0 l/m 0 min 0 min 0 W/m 6,4 km/h (2 Bft) 95,74 %
08.11.2022 01:50 11,9 C 11,1 C 7,8 C 91 % 1011,6 hPa 0,0 l/m 0 min 0 min 0 W/m 12,9 km/h (3 Bft) 97,87 %
08.11.2022 01:52 12,0 C 11,1 C 7,8 C 91 % 1011,7 hPa 0,0 l/m 0 min 0 min 0 W/m 6,4 km/h (2 Bft) 95,65 %
08.11.2022 01:54 12,0 C 11,1 C 7,8 C 91 % 1011,6 hPa 0,0 l/m 0 min 0 min 0 W/m 6,4 km/h (2 Bft) 95,74 %
08.11.2022 01:56 12,0 C 11,1 C 7,8 C 91 % 1011,6 hPa 0,0 l/m 0 min 0 min 0 W/m 12,9 km/h (3 Bft) 93,62 %
08.11.2022 01:58 12,0 C 11,7 C 7,8 C 91 % 1011,5 hPa 0,0 l/m 0 min 0 min 0 W/m 6,4 km/h (2 Bft) 95,74 %
08.11.2022 02:00 12,0 C 11,7 C 7,8 C 91 % 1011,5 hPa 0,0 l/m 0 min 0 min 0 W/m 12,9 km/h (3 Bft) 93,62 %
08.11.2022 02:02 12,0 C 11,7 C 8,3 C 91 % 1011,5 hPa 0,0 l/m 0 min 0 min 0 W/m 12,9 km/h (3 Bft) 95,74 %
08.11.2022 02:04 12,1 C 11,7 C 8,3 C 91 % 1011,5 hPa 0,0 l/m 0 min 0 min 0 W/m 12,9 km/h (3 Bft) 93,48 %
08.11.2022 02:06 12,1 C 11,7 C 8,3 C 91 % 1011,5 hPa 0,0 l/m 0 min 0 min 0 W/m 16,1 km/h (3 Bft) 93,22 %
08.11.2022 02:08 12,1 C 11,7 C 8,3 C 91 % 1011,5 hPa 0,0 l/m 0 min 0 min 0 W/m 12,9 km/h (3 Bft) 94,29 %
08.11.2022 02:10 12,1 C 11,7 C 8,3 C 90 % 1011,5 hPa 0,0 l/m 0 min 0 min 0 W/m 16,1 km/h (3 Bft) 96,49 %
08.11.2022 02:14 12,1 C 11,7 C 8,3 C 90 % 1011,4 hPa 0,0 l/m 0 min 0 min 0 W/m 12,9 km/h (3 Bft) 100,00 %
08.11.2022 02:17 12,1 C 11,7 C 8,3 C 90 % 1011,4 hPa 0,0 l/m 0 min 0 min 0 W/m 12,9 km/h (3 Bft) 97,14 %
08.11.2022 02:18 12,1 C 11,1 C 7,8 C 90 % 1011,4 hPa 0,0 l/m 0 min 0 min 0 W/m 12,9 km/h (3 Bft) 86,96 %
08.11.2022 02:20 12,1 C 11,1 C 7,8 C 90 % 1011,4 hPa 0,0 l/m 0 min 0 min 0 W/m 16,1 km/h (3 Bft) 91,49 %
08.11.2022 02:22 12,1 C 11,1 C 7,8 C 90 % 1011,4 hPa 0,0 l/m 0 min 0 min 0 W/m 6,4 km/h (2 Bft) 95,74 %
08.11.2022 02:24 12,1 C 11,1 C 7,8 C 90 % 1011,4 hPa 0,0 l/m 0 min 0 min 0 W/m 6,4 km/h (2 Bft) 95,74 %
08.11.2022 02:26 12,1 C 11,1 C 7,8 C 90 % 1011,3 hPa 0,0 l/m 0 min 0 min 0 W/m 3,2 km/h (1 Bft) 95,74 %
08.11.2022 02:28 12,0 C 10,6 C 7,8 C 90 % 1011,4 hPa 0,0 l/m 0 min 0 min 0 W/m 3,2 km/h (1 Bft) 93,62 %
08.11.2022 02:30 12,0 C 10,6 C 7,8 C 90 % 1011,3 hPa 0,0 l/m 0 min 0 min 0 W/m 6,4 km/h (2 Bft) 95,65 %
08.11.2022 02:32 11,9 C 10,6 C 7,8 C 90 % 1011,3 hPa 0,0 l/m 0 min 0 min 0 W/m 6,4 km/h (2 Bft) 95,74 %
08.11.2022 02:34 11,9 C 10,6 C 7,8 C 90 % 1011,3 hPa 0,0 l/m 0 min 0 min 0 W/m 6,4 km/h (2 Bft) 95,74 %
08.11.2022 02:36 11,8 C 10,6 C 7,2 C 90 % 1011,3 hPa 0,0 l/m 0 min 0 min 0 W/m 6,4 km/h (2 Bft) 96,61 %
08.11.2022 02:38 11,8 C 10,6 C 7,2 C 90 % 1011,2 hPa 0,0 l/m 0 min 0 min 0 W/m 3,2 km/h (1 Bft) 97,14 %
08.11.2022 02:40 11,8 C 10,6 C 7,2 C 90 % 1011,3 hPa 0,0 l/m 0 min 0 min 0 W/m 3,2 km/h (1 Bft) 97,87 %
08.11.2022 02:42 11,7 C 10,6 C 7,2 C 90 % 1011,3 hPa 0,0 l/m 0 min 0 min 0 W/m 6,4 km/h (2 Bft) 95,65 %
08.11.2022 02:44 11,7 C 10,6 C 7,2 C 90 % 1011,3 hPa 0,0 l/m 0 min 0 min 0 W/m 6,4 km/h (2 Bft) 100,00 %
08.11.2022 02:46 11,7 C 10,6 C 7,2 C 90 % 1011,3 hPa 0,0 l/m 0 min 0 min 0 W/m 6,4 km/h (2 Bft) 97,87 %
08.11.2022 02:48 11,7 C 10,6 C 7,2 C 90 % 1011,3 hPa 0,0 l/m 0 min 0 min 0 W/m 6,4 km/h (2 Bft) 100,00 %
08.11.2022 02:50 11,6 C 10,6 C 7,2 C 90 % 1011,3 hPa 0,0 l/m 0 min 0 min 0 W/m 16,1 km/h (3 Bft) 100,00 %
08.11.2022 02:52 11,6 C 10,6 C 7,2 C 90 % 1011,2 hPa 0,0 l/m 0 min 0 min 0 W/m 3,2 km/h (1 Bft) 100,00 %
08.11.2022 02:54 11,6 C 10,6 C 7,2 C 90 % 1011,2 hPa 0,0 l/m 0 min 0 min 0 W/m 6,4 km/h (2 Bft) 96,15 %
08.11.2022 02:56 11,5 C 10,6 C 7,2 C 90 % 1011,2 hPa 0,0 l/m 0 min 0 min 0 W/m 6,4 km/h (2 Bft) 97,87 %
08.11.2022 02:58 11,5 C 10,6 C 7,2 C 90 % 1011,2 hPa 0,0 l/m 0 min 0 min 0 W/m 6,4 km/h (2 Bft) 100,00 %
08.11.2022 03:00 11,5 C 10,6 C 7,2 C 90 % 1011,2 hPa 0,0 l/m 0 min 0 min 0 W/m 12,9 km/h (3 Bft) 97,87 %
08.11.2022 03:02 11,5 C 10,6 C 7,2 C 91 % 1011,1 hPa 0,0 l/m 0 min 0 min 0 W/m 12,9 km/h (3 Bft) 95,74 %
08.11.2022 03:04 11,4 C 10,6 C 7,2 C 91 % 1011,1 hPa 0,0 l/m 0 min 0 min 0 W/m 6,4 km/h (2 Bft) 97,83 %
08.11.2022 03:06 11,4 C 10,6 C 7,2 C 91 % 1011,1 hPa 0,0 l/m 0 min 0 min 0 W/m 3,2 km/h (1 Bft) 97,87 %
08.11.2022 03:08 11,4 C 10,6 C 7,2 C 91 % 1011,2 hPa 0,0 l/m 0 min 0 min 0 W/m 6,4 km/h (2 Bft) 95,74 %
08.11.2022 03:10 11,4 C 10,6 C 7,2 C 91 % 1011,1 hPa 0,0 l/m 0 min 0 min 0 W/m 6,4 km/h (2 Bft) 97,87 %
08.11.2022 03:12 11,4 C 10,6 C 7,2 C 91 % 1011,1 hPa 0,0 l/m 0 min 0 min 0 W/m 3,2 km/h (1 Bft) 95,74 %
08.11.2022 03:14 11,4 C 10,6 C 7,2 C 91 % 1011,1 hPa 0,0 l/m 0 min 0 min 0 W/m 12,9 km/h (3 Bft) 97,87 %
08.11.2022 03:16 11,4 C 10,6 C 7,2 C 91 % 1011,1 hPa 0,0 l/m 0 min 0 min 0 W/m 6,4 km/h (2 Bft) 97,83 %
08.11.2022 03:18 11,3 C 10,6 C 7,2 C 91 % 1011,0 hPa 0,0 l/m 0 min 0 min 0 W/m 12,9 km/h (3 Bft) 97,87 %
08.11.2022 03:20 11,3 C 10,6 C 7,2 C 91 % 1011,1 hPa 0,0 l/m 0 min 0 min 0 W/m 6,4 km/h (2 Bft) 97,87 %
08.11.2022 03:22 11,3 C 10,6 C 7,2 C 91 % 1011,1 hPa 0,0 l/m 0 min 0 min 0 W/m 12,9 km/h (3 Bft) 97,87 %
08.11.2022 03:25 11,3 C 10,6 C 7,2 C 91 % 1011,1 hPa 0,0 l/m 0 min 0 min 0 W/m 9,7 km/h (2 Bft) 97,14 %
08.11.2022 03:26 11,3 C 10,6 C 7,2 C 91 % 1011,1 hPa 0,0 l/m 0 min 0 min 0 W/m 6,4 km/h (2 Bft) 95,83 %
08.11.2022 03:28 11,3 C 10,0 C 7,2 C 91 % 1011,1 hPa 0,0 l/m 0 min 0 min 0 W/m 3,2 km/h (1 Bft) 97,83 %
08.11.2022 03:30 11,2 C 10,0 C 7,2 C 91 % 1011,1 hPa 0,0 l/m 0 min 0 min 0 W/m 6,4 km/h (2 Bft) 97,87 %
08.11.2022 03:32 11,2 C 10,0 C 7,2 C 91 % 1011,0 hPa 0,0 l/m 0 min 0 min 0 W/m 12,9 km/h (3 Bft) 100,00 %
08.11.2022 03:34 11,2 C 10,0 C 7,2 C 91 % 1011,0 hPa 0,0 l/m 0 min 0 min 0 W/m 6,4 km/h (2 Bft) 100,00 %
08.11.2022 03:36 11,1 C 10,0 C 7,2 C 91 % 1011,0 hPa 0,0 l/m 0 min 0 min 0 W/m 12,9 km/h (3 Bft) 100,00 %
08.11.2022 03:38 11,1 C 10,0 C 7,2 C 91 % 1010,9 hPa 0,0 l/m 0 min 0 min 0 W/m 12,9 km/h (3 Bft) 95,74 %
08.11.2022 03:40 11,1 C 10,0 C 7,2 C 91 % 1010,9 hPa 0,0 l/m 0 min 0 min 0 W/m 12,9 km/h (3 Bft) 100,00 %
08.11.2022 03:42 11,1 C 10,0 C 7,2 C 91 % 1010,8 hPa 0,0 l/m 0 min 0 min 0 W/m 6,4 km/h (2 Bft) 95,74 %
08.11.2022 03:44 11,1 C 10,0 C 7,2 C 92 % 1010,8 hPa 0,0 l/m 0 min 0 min 0 W/m 6,4 km/h (2 Bft) 100,00 %
08.11.2022 03:46 11,0 C 10,0 C 7,2 C 92 % 1010,8 hPa 0,0 l/m 0 min 0 min 0 W/m 6,4 km/h (2 Bft) 100,00 %
08.11.2022 03:48 11,0 C 10,0 C 7,2 C 91 % 1010,7 hPa 0,0 l/m 0 min 0 min 0 W/m 12,9 km/h (3 Bft) 100,00 %
08.11.2022 03:50 11,0 C 10,0 C 7,2 C 92 % 1010,7 hPa 0,0 l/m 0 min 0 min 0 W/m 12,9 km/h (3 Bft) 100,00 %
08.11.2022 03:52 10,9 C 10,0 C 7,2 C 92 % 1010,7 hPa 0,0 l/m 0 min 0 min 0 W/m 12,9 km/h (3 Bft) 100,00 %
08.11.2022 03:54 10,9 C 10,0 C 7,2 C 92 % 1010,6 hPa 0,0 l/m 0 min 0 min 0 W/m 6,4 km/h (2 Bft) 100,00 %
08.11.2022 03:56 10,9 C 10,0 C 6,7 C 92 % 1010,6 hPa 0,0 l/m 0 min 0 min 0 W/m 9,7 km/h (2 Bft) 100,00 %
08.11.2022 03:58 10,9 C 10,0 C 6,7 C 92 % 1010,6 hPa 0,0 l/m 0 min 0 min 0 W/m 6,4 km/h (2 Bft) 100,00 %
08.11.2022 04:00 10,9 C 10,0 C 7,2 C 92 % 1010,6 hPa 0,0 l/m 0 min 0 min 0 W/m 12,9 km/h (3 Bft) 100,00 %
08.11.2022 04:02 10,9 C 10,0 C 7,2 C 92 % 1010,5 hPa 0,0 l/m 0 min 0 min 0 W/m 16,1 km/h (3 Bft) 97,83 %
08.11.2022 04:04 10,9 C 10,0 C 7,2 C 92 % 1010,4 hPa 0,0 l/m 0 min 0 min 0 W/m 12,9 km/h (3 Bft) 97,87 %
08.11.2022 04:06 11,0 C 10,0 C 7,2 C 92 % 1010,4 hPa 0,0 l/m 0 min 0 min 0 W/m 19,3 km/h (3 Bft) 100,00 %
08.11.2022 04:08 11,0 C 10,0 C 7,2 C 92 % 1010,4 hPa 0,0 l/m 0 min 0 min 0 W/m 16,1 km/h (3 Bft) 100,00 %
08.11.2022 04:10 11,0 C 10,6 C 7,2 C 92 % 1010,4 hPa 0,0 l/m 0 min 0 min 0 W/m 12,9 km/h (3 Bft) 100,00 %
08.11.2022 04:12 11,0 C 10,0 C 7,2 C 92 % 1010,4 hPa 0,0 l/m 0 min 0 min 0 W/m 6,4 km/h (2 Bft) 100,00 %
08.11.2022 04:14 11,0 C 10,0 C 7,2 C 93 % 1010,3 hPa 0,0 l/m 0 min 0 min 0 W/m 12,9 km/h (3 Bft) 97,87 %
08.11.2022 04:16 11,0 C 10,6 C 7,2 C 93 % 1010,3 hPa 0,0 l/m 0 min 0 min 0 W/m 19,3 km/h (3 Bft) 100,00 %
08.11.2022 04:18 11,1 C 10,6 C 7,2 C 93 % 1010,2 hPa 0,0 l/m 0 min 0 min 0 W/m 16,1 km/h (3 Bft) 97,87 %
08.11.2022 04:20 11,1 C 10,6 C 7,2 C 93 % 1010,2 hPa 0,0 l/m 0 min 0 min 0 W/m 16,1 km/h (3 Bft) 100,00 %
08.11.2022 04:22 11,1 C 10,6 C 7,2 C 93 % 1010,2 hPa 0,0 l/m 0 min 0 min 0 W/m 12,9 km/h (3 Bft) 97,87 %
08.11.2022 04:24 11,1 C 10,6 C 7,2 C 93 % 1010,2 hPa 0,0 l/m 0 min 0 min 0 W/m 12,9 km/h (3 Bft) 97,87 %
08.11.2022 04:26 11,1 C 10,6 C 7,2 C 93 % 1010,0 hPa 0,0 l/m 0 min 0 min 0 W/m 16,1 km/h (3 Bft) 97,83 %
08.11.2022 04:28 11,1 C 10,6 C 7,2 C 93 % 1010,1 hPa 0,0 l/m 0 min 0 min 0 W/m 12,9 km/h (3 Bft) 97,87 %
08.11.2022 04:30 11,1 C 10,6 C 7,2 C 92 % 1010,0 hPa 0,0 l/m 0 min 0 min 0 W/m 12,9 km/h (3 Bft) 97,87 %
08.11.2022 04:32 11,1 C 10,6 C 7,2 C 92 % 1010,0 hPa 0,0 l/m 0 min 0 min 0 W/m 19,3 km/h (3 Bft) 97,87 %
08.11.2022 04:34 11,1 C 10,6 C 7,2 C 92 % 1009,9 hPa 0,0 l/m 0 min 0 min 0 W/m 12,9 km/h (3 Bft) 97,87 %
08.11.2022 04:36 11,1 C 10,6 C 7,2 C 92 % 1009,9 hPa 0,0 l/m 0 min 0 min 0 W/m 6,4 km/h (2 Bft) 97,83 %
08.11.2022 04:38 11,1 C 10,6 C 7,2 C 92 % 1009,8 hPa 0,0 l/m 0 min 0 min 0 W/m 12,9 km/h (3 Bft) 97,87 %
08.11.2022 04:40 11,1 C 10,6 C 7,2 C 92 % 1009,9 hPa 0,0 l/m 0 min 0 min 0 W/m 19,3 km/h (3 Bft) 95,74 %
08.11.2022 04:42 11,2 C 10,6 C 7,2 C 92 % 1009,9 hPa 0,0 l/m 0 min 0 min 0 W/m 16,1 km/h (3 Bft) 97,87 %
08.11.2022 04:44 11,2 C 10,6 C 7,2 C 92 % 1009,9 hPa 0,0 l/m 0 min 0 min 0 W/m 16,1 km/h (3 Bft) 97,87 %
08.11.2022 04:46 11,2 C 10,6 C 7,2 C 92 % 1009,9 hPa 0,0 l/m 0 min 0 min 0 W/m 22,5 km/h (4 Bft) 95,74 %
08.11.2022 04:48 11,2 C 10,6 C 7,2 C 92 % 1009,9 hPa 0,0 l/m 0 min 0 min 0 W/m 22,5 km/h (4 Bft) 97,83 %
08.11.2022 04:50 11,2 C 10,6 C 7,2 C 92 % 1009,9 hPa 0,0 l/m 0 min 0 min 0 W/m 22,5 km/h (4 Bft) 95,74 %
08.11.2022 04:52 11,2 C 10,6 C 7,2 C 92 % 1009,9 hPa 0,0 l/m 0 min 0 min 0 W/m 16,1 km/h (3 Bft) 91,49 %
08.11.2022 04:54 11,2 C 10,6 C 7,2 C 92 % 1009,8 hPa 0,0 l/m 0 min 0 min 0 W/m 22,5 km/h (4 Bft) 97,67 %
08.11.2022 04:56 11,2 C 10,6 C 7,2 C 92 % 1009,8 hPa 0,0 l/m 0 min 0 min 0 W/m 19,3 km/h (3 Bft) 91,49 %
08.11.2022 04:58 11,2 C 10,6 C 7,2 C 92 % 1009,8 hPa 0,0 l/m 0 min 0 min 0 W/m 16,1 km/h (3 Bft) 94,00 %
08.11.2022 05:00 11,2 C 10,6 C 7,2 C 92 % 1009,8 hPa 0,0 l/m 0 min 0 min 0 W/m 16,1 km/h (3 Bft) 54,35 %
08.11.2022 05:02 11,2 C 10,6 C 7,2 C 92 % 1009,7 hPa 0,0 l/m 0 min 0 min 0 W/m 12,9 km/h (3 Bft) 93,62 %
08.11.2022 05:04 11,2 C 10,6 C 7,2 C 92 % 1009,7 hPa 0,0 l/m 0 min 0 min 0 W/m 12,9 km/h (3 Bft) 91,67 %
08.11.2022 05:06 11,2 C 10,6 C 7,2 C 92 % 1009,8 hPa 0,0 l/m 0 min 0 min 0 W/m 12,9 km/h (3 Bft) 93,62 %
08.11.2022 05:08 11,2 C 10,6 C 7,2 C 92 % 1009,8 hPa 0,0 l/m 0 min 0 min 0 W/m 16,1 km/h (3 Bft) 89,36 %
08.11.2022 05:10 11,2 C 10,6 C 7,2 C 92 % 1009,8 hPa 0,0 l/m 0 min 0 min 0 W/m 9,7 km/h (2 Bft) 95,74 %
08.11.2022 05:12 11,2 C 10,6 C 7,2 C 92 % 1009,7 hPa 0,0 l/m 0 min 0 min 0 W/m 16,1 km/h (3 Bft) 95,65 %
08.11.2022 05:14 11,2 C 10,6 C 7,2 C 92 % 1009,7 hPa 0,0 l/m 0 min 0 min 0 W/m 12,9 km/h (3 Bft) 95,74 %
08.11.2022 05:16 11,2 C 10,6 C 7,2 C 92 % 1009,6 hPa 0,0 l/m 0 min 0 min 0 W/m 19,3 km/h (3 Bft) 95,74 %
08.11.2022 05:18 11,2 C 10,0 C 7,2 C 92 % 1009,6 hPa 0,0 l/m 0 min 0 min 0 W/m 16,1 km/h (3 Bft) 95,74 %
08.11.2022 05:20 11,1 C 10,0 C 7,2 C 92 % 1009,6 hPa 0,0 l/m 0 min 0 min 0 W/m 12,9 km/h (3 Bft) 95,74 %
08.11.2022 05:22 11,1 C 10,6 C 7,2 C 92 % 1009,6 hPa 0,0 l/m 0 min 0 min 0 W/m 25,7 km/h (4 Bft) 95,74 %
08.11.2022 05:24 11,1 C 10,6 C 7,2 C 92 % 1009,5 hPa 0,0 l/m 0 min 0 min 0 W/m 19,3 km/h (3 Bft) 95,65 %
08.11.2022 05:26 11,1 C 10,6 C 7,2 C 92 % 1009,6 hPa 0,0 l/m 0 min 0 min 0 W/m 12,9 km/h (3 Bft) 97,87 %
08.11.2022 05:28 11,1 C 10,6 C 7,2 C 92 % 1009,5 hPa 0,0 l/m 0 min 0 min 0 W/m 16,1 km/h (3 Bft) 97,87 %
08.11.2022 05:30 11,1 C 10,6 C 7,2 C 92 % 1009,5 hPa 0,0 l/m 0 min 0 min 0 W/m 19,3 km/h (3 Bft) 97,87 %
08.11.2022 05:32 11,1 C 10,0 C 7,2 C 92 % 1009,4 hPa 0,0 l/m 0 min 0 min 0 W/m 16,1 km/h (3 Bft) 97,87 %
08.11.2022 05:34 11,1 C 10,0 C 7,2 C 92 % 1009,1 hPa 0,0 l/m 0 min 0 min 0 W/m 16,1 km/h (3 Bft) 93,62 %
08.11.2022 05:36 11,1 C 10,0 C 7,2 C 92 % 1009,2 hPa 0,0 l/m 0 min 0 min 0 W/m 12,9 km/h (3 Bft) 97,83 %
08.11.2022 05:38 11,1 C 10,6 C 7,2 C 92 % 1009,2 hPa 0,0 l/m 0 min 0 min 0 W/m 22,5 km/h (4 Bft) 97,30 %
08.11.2022 05:40 11,1 C 10,6 C 7,2 C 92 % 1009,2 hPa 0,0 l/m 0 min 0 min 0 W/m 19,3 km/h (3 Bft) 95,74 %
08.11.2022 05:42 11,1 C 10,6 C 7,2 C 92 % 1009,1 hPa 0,0 l/m 0 min 0 min 0 W/m 12,9 km/h (3 Bft) 97,87 %
08.11.2022 05:44 11,1 C 10,6 C 7,2 C 92 % 1009,1 hPa 0,0 l/m 0 min 0 min 0 W/m 22,5 km/h (4 Bft) 97,87 %
08.11.2022 05:46 11,1 C 10,6 C 7,2 C 92 % 1009,1 hPa 0,0 l/m 0 min 0 min 0 W/m 16,1 km/h (3 Bft) 97,87 %
08.11.2022 05:48 11,1 C 10,6 C 7,2 C 92 % 1009,1 hPa 0,0 l/m 0 min 0 min 0 W/m 29,0 km/h (5 Bft) 100,00 %
08.11.2022 05:50 11,1 C 10,6 C 7,2 C 92 % 1009,0 hPa 0,0 l/m 0 min 0 min 0 W/m 25,7 km/h (4 Bft) 100,00 %
08.11.2022 05:52 11,1 C 10,6 C 7,2 C 92 % 1009,0 hPa 0,0 l/m 0 min 0 min 0 W/m 19,3 km/h (3 Bft) 100,00 %
08.11.2022 05:54 11,1 C 10,6 C 7,2 C 92 % 1008,8 hPa 0,0 l/m 0 min 0 min 0 W/m 25,7 km/h (4 Bft) 97,92 %
08.11.2022 05:56 11,1 C 10,6 C 7,2 C 92 % 1008,8 hPa 0,0 l/m 0 min 0 min 0 W/m 32,2 km/h (5 Bft) 100,00 %
08.11.2022 05:58 11,1 C 10,6 C 7,2 C 92 % 1008,9 hPa 0,0 l/m 0 min 0 min 0 W/m 25,7 km/h (4 Bft) 97,73 %
08.11.2022 06:00 11,1 C 10,6 C 7,2 C 92 % 1008,8 hPa 0,0 l/m 0 min 0 min 0 W/m 19,3 km/h (3 Bft) 100,00 %
08.11.2022 06:02 11,1 C 10,6 C 7,2 C 92 % 1008,7 hPa 0,0 l/m 0 min 0 min 0 W/m 16,1 km/h (3 Bft) 97,83 %
08.11.2022 06:04 11,1 C 10,0 C 7,2 C 92 % 1008,8 hPa 0,0 l/m 0 min 0 min 0 W/m 22,5 km/h (4 Bft) 98,00 %
08.11.2022 06:08 11,1 C 10,0 C 7,2 C 92 % 1008,7 hPa 0,0 l/m 0 min 0 min 0 W/m 16,1 km/h (3 Bft) 98,90 %
08.11.2022 06:10 11,1 C 10,0 C 7,2 C 92 % 1008,7 hPa 0,0 l/m 0 min 0 min 0 W/m 22,5 km/h (4 Bft) 100,00 %
08.11.2022 06:12 11,1 C 10,0 C 7,2 C 92 % 1008,6 hPa 0,0 l/m 0 min 0 min 0 W/m 12,9 km/h (3 Bft) 100,00 %
08.11.2022 06:14 11,1 C 10,0 C 7,2 C 92 % 1008,5 hPa 0,0 l/m 0 min 0 min 0 W/m 19,3 km/h (3 Bft) 100,00 %
08.11.2022 06:16 11,1 C 10,6 C 7,2 C 92 % 1008,4 hPa 0,0 l/m 0 min 0 min 0 W/m 22,5 km/h (4 Bft) 100,00 %
08.11.2022 06:18 11,1 C 10,6 C 7,2 C 91 % 1008,5 hPa 0,0 l/m 0 min 0 min 0 W/m 22,5 km/h (4 Bft) 97,87 %
08.11.2022 06:20 11,1 C 10,6 C 7,2 C 91 % 1008,5 hPa 0,0 l/m 0 min 0 min 0 W/m 29,0 km/h (5 Bft) 100,00 %
08.11.2022 06:23 11,1 C 10,6 C 7,2 C 91 % 1008,4 hPa 0,0 l/m 0 min 0 min 0 W/m 22,5 km/h (4 Bft) 100,00 %
08.11.2022 06:24 11,1 C 10,6 C 7,2 C 91 % 1008,4 hPa 0,0 l/m 0 min 0 min 0 W/m 16,1 km/h (3 Bft) 95,65 %
08.11.2022 06:28 11,1 C 10,6 C 7,2 C 91 % 1008,3 hPa 0,0 l/m 0 min 0 min 0 W/m 35,4 km/h (5 Bft) 100,00 %
08.11.2022 06:30 11,1 C 10,6 C 7,2 C 91 % 1008,3 hPa 0,0 l/m 0 min 0 min 0 W/m 16,1 km/h (3 Bft) 100,00 %
08.11.2022 06:32 11,1 C 10,6 C 7,2 C 91 % 1008,3 hPa 0,0 l/m 0 min 0 min 0 W/m 19,3 km/h (3 Bft) 97,87 %
08.11.2022 06:34 11,1 C 10,6 C 7,2 C 91 % 1008,3 hPa 0,0 l/m 0 min 0 min 0 W/m 25,7 km/h (4 Bft) 100,00 %
08.11.2022 06:36 11,1 C 10,6 C 7,2 C 91 % 1008,3 hPa 0,0 l/m 0 min 0 min 0 W/m 22,5 km/h (4 Bft) 97,87 %
08.11.2022 06:38 11,1 C 10,6 C 7,2 C 91 % 1008,3 hPa 0,0 l/m 0 min 0 min 0 W/m 22,5 km/h (4 Bft) 100,00 %
08.11.2022 06:40 11,1 C 10,6 C 7,2 C 91 % 1008,3 hPa 0,0 l/m 0 min 0 min 0 W/m 25,7 km/h (4 Bft) 100,00 %
08.11.2022 06:42 11,1 C 10,6 C 7,2 C 91 % 1008,3 hPa 0,0 l/m 0 min 0 min 0 W/m 22,5 km/h (4 Bft) 95,74 %
08.11.2022 06:44 11,1 C 10,6 C 7,2 C 91 % 1008,3 hPa 0,0 l/m 0 min 0 min 0 W/m 19,3 km/h (3 Bft) 97,87 %
08.11.2022 06:46 11,1 C 10,6 C 7,2 C 91 % 1008,2 hPa 0,0 l/m 0 min 0 min 0 W/m 22,5 km/h (4 Bft) 97,83 %
08.11.2022 06:48 11,1 C 10,6 C 7,2 C 91 % 1008,2 hPa 0,0 l/m 0 min 0 min 0 W/m 22,5 km/h (4 Bft) 97,87 %
08.11.2022 06:50 11,1 C 10,6 C 7,2 C 91 % 1008,2 hPa 0,0 l/m 0 min 0 min 0 W/m 16,1 km/h (3 Bft) 93,62 %
08.11.2022 06:52 11,1 C 10,6 C 7,2 C 91 % 1008,0 hPa 0,0 l/m 0 min 0 min 0 W/m 35,4 km/h (5 Bft) 97,87 %
08.11.2022 06:54 11,1 C 10,6 C 7,2 C 91 % 1007,9 hPa 0,0 l/m 0 min 0 min 0 W/m 19,3 km/h (3 Bft) 97,87 %
08.11.2022 06:56 11,1 C 10,6 C 7,2 C 90 % 1007,9 hPa 0,0 l/m 0 min 0 min 0 W/m 19,3 km/h (3 Bft) 95,74 %
08.11.2022 06:58 11,1 C 10,0 C 7,2 C 90 % 1007,8 hPa 0,0 l/m 0 min 0 min 0 W/m 16,1 km/h (3 Bft) 97,56 %
08.11.2022 07:00 11,1 C 10,0 C 7,2 C 90 % 1007,8 hPa 0,0 l/m 0 min 0 min 0 W/m 32,2 km/h (5 Bft) 93,62 %
08.11.2022 07:02 11,0 C 10,0 C 7,2 C 90 % 1007,8 hPa 0,0 l/m 0 min 0 min 0 W/m 16,1 km/h (3 Bft) 93,62 %
08.11.2022 07:04 11,0 C 10,0 C 7,2 C 90 % 1007,8 hPa 0,0 l/m 0 min 0 min 0 W/m 25,7 km/h (4 Bft) 98,08 %
08.11.2022 07:06 10,9 C 10,0 C 7,2 C 90 % 1007,8 hPa 0,0 l/m 0 min 0 min 0 W/m 16,1 km/h (3 Bft) 97,87 %
08.11.2022 07:08 10,9 C 10,0 C 7,2 C 90 % 1007,8 hPa 0,0 l/m 0 min 0 min 0 W/m 16,1 km/h (3 Bft) 93,48 %
08.11.2022 07:10 10,9 C 10,0 C 7,2 C 91 % 1007,7 hPa 0,0 l/m 0 min 0 min 0 W/m 19,3 km/h (3 Bft) 95,74 %
08.11.2022 07:12 10,9 C 10,0 C 7,2 C 91 % 1007,7 hPa 0,0 l/m 0 min 0 min 0 W/m 19,3 km/h (3 Bft) 97,87 %
08.11.2022 07:14 10,9 C 10,0 C 7,2 C 91 % 1007,8 hPa 0,0 l/m 0 min 0 min 0 W/m 22,5 km/h (4 Bft) 94,44 %
08.11.2022 07:16 10,9 C 10,0 C 7,2 C 91 % 1007,7 hPa 0,0 l/m 0 min 0 min 0 W/m 19,3 km/h (3 Bft) 95,74 %
08.11.2022 07:18 10,8 C 10,0 C 7,2 C 91 % 1007,9 hPa 0,0 l/m 0 min 0 min 0 W/m 16,1 km/h (3 Bft) 98,18 %
08.11.2022 07:20 10,8 C 10,0 C 7,2 C 91 % 1007,8 hPa 0,0 l/m 0 min 0 min 0 W/m 16,1 km/h (3 Bft) 97,96 %
08.11.2022 07:22 10,8 C 10,0 C 6,7 C 91 % 1007,8 hPa 0,0 l/m 0 min 0 min 0 W/m 19,3 km/h (3 Bft) 97,30 %
08.11.2022 07:24 10,8 C 10,0 C 6,7 C 90 % 1007,8 hPa 0,0 l/m 0 min 0 min 0 W/m 16,1 km/h (3 Bft) 98,08 %
08.11.2022 07:26 10,8 C 10,0 C 6,7 C 90 % 1007,8 hPa 0,0 l/m 0 min 0 min 0 W/m 22,5 km/h (4 Bft) 95,74 %
08.11.2022 07:28 10,8 C 10,0 C 6,7 C 90 % 1007,9 hPa 0,0 l/m 0 min 0 min 0 W/m 25,7 km/h (4 Bft) 98,00 %
08.11.2022 07:30 10,8 C 10,0 C 6,7 C 90 % 1007,9 hPa 0,0 l/m 0 min 0 min 0 W/m 19,3 km/h (3 Bft) 94,74 %
08.11.2022 07:32 10,7 C 10,0 C 6,7 C 90 % 1007,9 hPa 0,0 l/m 0 min 0 min 0 W/m 25,7 km/h (4 Bft) 97,87 %
08.11.2022 07:34 10,7 C 10,0 C 6,7 C 90 % 1007,9 hPa 0,0 l/m 0 min 0 min 0 W/m 19,3 km/h (3 Bft) 95,74 %
08.11.2022 07:36 10,7 C 10,0 C 6,7 C 90 % 1008,0 hPa 0,0 l/m 0 min 0 min 0 W/m 19,3 km/h (3 Bft) 96,15 %
08.11.2022 07:38 10,8 C 10,0 C 6,7 C 90 % 1007,9 hPa 0,0 l/m 0 min 0 min 0 W/m 22,5 km/h (4 Bft) 95,74 %
08.11.2022 07:40 10,8 C 10,0 C 7,2 C 90 % 1008,0 hPa 0,0 l/m 0 min 0 min 0 W/m 22,5 km/h (4 Bft) 97,87 %
08.11.2022 07:42 10,8 C 10,0 C 7,2 C 90 % 1008,0 hPa 0,0 l/m 0 min 0 min 3 W/m 29,0 km/h (5 Bft) 98,00 %
08.11.2022 07:44 10,8 C 10,0 C 7,2 C 90 % 1008,0 hPa 0,0 l/m 0 min 0 min 6 W/m 19,3 km/h (3 Bft) 97,37 %
08.11.2022 07:46 10,8 C 10,0 C 7,2 C 90 % 1008,0 hPa 0,0 l/m 0 min 0 min 7 W/m 19,3 km/h (3 Bft) 97,87 %
08.11.2022 07:48 10,8 C 10,0 C 7,2 C 90 % 1008,0 hPa 0,0 l/m 0 min 0 min 9 W/m 29,0 km/h (5 Bft) 98,18 %
08.11.2022 07:50 10,8 C 10,0 C 7,2 C 90 % 1008,0 hPa 0,0 l/m 0 min 0 min 11 W/m 25,7 km/h (4 Bft) 94,74 %
08.11.2022 07:52 10,8 C 10,0 C 7,2 C 90 % 1008,0 hPa 0,0 l/m 0 min 0 min 12 W/m 16,1 km/h (3 Bft) 95,74 %
08.11.2022 07:54 10,8 C 10,0 C 7,2 C 90 % 1008,1 hPa 0,0 l/m 0 min 0 min 14 W/m 19,3 km/h (3 Bft) 98,21 %
08.11.2022 07:56 10,8 C 10,0 C 7,2 C 90 % 1008,1 hPa 0,0 l/m 0 min 0 min 15 W/m 22,5 km/h (4 Bft) 95,65 %
08.11.2022 07:58 10,8 C 10,0 C 7,2 C 90 % 1008,1 hPa 0,0 l/m 0 min 0 min 16 W/m 19,3 km/h (3 Bft) 93,18 %
08.11.2022 08:00 10,8 C 10,0 C 7,2 C 90 % 1008,1 hPa 0,0 l/m 0 min 0 min 18 W/m 38,6 km/h (5 Bft) 97,87 %
08.11.2022 08:02 10,8 C 10,0 C 7,2 C 90 % 1008,1 hPa 0,0 l/m 0 min 0 min 20 W/m 22,5 km/h (4 Bft) 97,73 %
08.11.2022 08:04 10,8 C 10,0 C 7,2 C 90 % 1008,0 hPa 0,0 l/m 0 min 0 min 22 W/m 22,5 km/h (4 Bft) 96,00 %
08.11.2022 08:06 10,8 C 10,0 C 7,2 C 90 % 1008,1 hPa 0,0 l/m 0 min 0 min 23 W/m 25,7 km/h (4 Bft) 98,00 %
08.11.2022 08:08 10,8 C 10,0 C 7,2 C 90 % 1008,1 hPa 0,0 l/m 0 min 0 min 25 W/m 25,7 km/h (4 Bft) 97,56 %
08.11.2022 08:10 10,8 C 10,0 C 7,2 C 90 % 1008,1 hPa 0,0 l/m 0 min 0 min 26 W/m 22,5 km/h (4 Bft) 97,96 %
08.11.2022 08:12 10,8 C 10,0 C 7,2 C 90 % 1008,2 hPa 0,0 l/m 0 min 0 min 26 W/m 25,7 km/h (4 Bft) 96,00 %
08.11.2022 08:14 10,8 C 10,0 C 7,2 C 90 % 1008,1 hPa 0,0 l/m 0 min 0 min 28 W/m 32,2 km/h (5 Bft) 97,87 %
08.11.2022 08:17 10,8 C 10,0 C 7,2 C 90 % 1008,1 hPa 0,0 l/m 0 min 0 min 29 W/m 19,3 km/h (3 Bft) 97,14 %
08.11.2022 08:18 10,8 C 10,0 C 7,2 C 90 % 1008,1 hPa 0,0 l/m 0 min 0 min 29 W/m 29,0 km/h (5 Bft) 100,00 %
08.11.2022 08:20 10,8 C 10,0 C 7,2 C 90 % 1008,1 hPa 0,0 l/m 0 min 0 min 30 W/m 29,0 km/h (5 Bft) 98,11 %
08.11.2022 08:23 10,8 C 10,0 C 7,2 C 90 % 1008,0 hPa 0,0 l/m 0 min 0 min 31 W/m 25,7 km/h (4 Bft) 97,56 %
08.11.2022 08:24 10,8 C 10,0 C 7,2 C 90 % 1008,1 hPa 0,0 l/m 0 min 0 min 33 W/m 25,7 km/h (4 Bft) 95,65 %
08.11.2022 08:25 10,8 C 10,0 C 7,2 C 90 % 1008,1 hPa 0,0 l/m 0 min 0 min 32 W/m 25,7 km/h (4 Bft) 100,00 %
08.11.2022 08:28 10,8 C 10,6 C 7,2 C 90 % 1008,0 hPa 0,0 l/m 0 min 0 min 34 W/m 19,3 km/h (3 Bft) 100,00 %
08.11.2022 08:30 10,8 C 10,6 C 7,2 C 90 % 1008,0 hPa 0,0 l/m 0 min 0 min 35 W/m 25,7 km/h (4 Bft) 97,83 %
08.11.2022 08:32 10,8 C 10,6 C 7,2 C 90 % 1008,0 hPa 0,0 l/m 0 min 0 min 38 W/m 29,0 km/h (5 Bft) 97,87 %
08.11.2022 08:34 10,8 C 10,6 C 7,2 C 89 % 1008,0 hPa 0,0 l/m 0 min 0 min 40 W/m 29,0 km/h (5 Bft) 95,74 %
08.11.2022 08:36 10,9 C 10,6 C 7,2 C 89 % 1008,0 hPa 0,0 l/m 0 min 0 min 44 W/m 22,5 km/h (4 Bft) 89,83 %
08.11.2022 08:38 10,9 C 10,6 C 7,2 C 89 % 1007,9 hPa 0,0 l/m 0 min 0 min 46 W/m 25,7 km/h (4 Bft) 97,14 %
08.11.2022 08:40 10,9 C 10,6 C 7,2 C 89 % 1008,0 hPa 0,0 l/m 0 min 0 min 49 W/m 25,7 km/h (4 Bft) 95,74 %
08.11.2022 08:42 10,9 C 10,6 C 7,2 C 89 % 1008,0 hPa 0,0 l/m 0 min 0 min 52 W/m 22,5 km/h (4 Bft) 91,30 %
08.11.2022 08:44 10,9 C 10,6 C 7,2 C 89 % 1008,0 hPa 0,0 l/m 0 min 0 min 54 W/m 25,7 km/h (4 Bft) 93,62 %
08.11.2022 08:46 11,0 C 10,6 C 7,2 C 89 % 1008,1 hPa 0,0 l/m 0 min 0 min 56 W/m 19,3 km/h (3 Bft) 95,74 %
08.11.2022 08:48 11,0 C 10,6 C 7,2 C 89 % 1008,1 hPa 0,0 l/m 0 min 0 min 57 W/m 25,7 km/h (4 Bft) 93,62 %
08.11.2022 08:50 11,1 C 10,6 C 7,2 C 89 % 1008,1 hPa 0,0 l/m 0 min 0 min 59 W/m 19,3 km/h (3 Bft) 97,87 %
08.11.2022 08:52 11,1 C 10,6 C 7,2 C 89 % 1008,2 hPa 0,0 l/m 0 min 0 min 57 W/m 25,7 km/h (4 Bft) 97,87 %
08.11.2022 08:54 11,1 C 10,6 C 7,2 C 89 % 1008,1 hPa 0,0 l/m 0 min 0 min 60 W/m 19,3 km/h (3 Bft) 95,24 %
08.11.2022 08:56 11,1 C 10,6 C 7,2 C 89 % 1008,2 hPa 0,0 l/m 0 min 0 min 65 W/m 22,5 km/h (4 Bft) 97,87 %
08.11.2022 08:58 11,2 C 10,6 C 7,2 C 89 % 1008,2 hPa 0,0 l/m 0 min 0 min 65 W/m 16,1 km/h (3 Bft) 97,96 %
08.11.2022 09:00 11,2 C 11,1 C 7,2 C 89 % 1008,2 hPa 0,0 l/m 0 min 0 min 66 W/m 22,5 km/h (4 Bft) 97,87 %
08.11.2022 09:02 11,2 C 11,1 C 7,8 C 88 % 1008,2 hPa 0,0 l/m 0 min 0 min 68 W/m 22,5 km/h (4 Bft) 95,74 %
08.11.2022 09:04 11,2 C 11,1 C 7,8 C 89 % 1008,1 hPa 0,0 l/m 0 min 0 min 70 W/m 29,0 km/h (5 Bft) 97,96 %
08.11.2022 09:06 11,3 C 11,1 C 7,8 C 88 % 1008,0 hPa 0,0 l/m 0 min 0 min 72 W/m 25,7 km/h (4 Bft) 95,65 %
08.11.2022 09:08 11,3 C 11,1 C 7,8 C 88 % 1008,0 hPa 0,0 l/m 0 min 0 min 86 W/m 25,7 km/h (4 Bft) 100,00 %
08.11.2022 09:10 11,3 C 11,1 C 7,8 C 88 % 1008,0 hPa 0,0 l/m 0 min 0 min 77 W/m 25,7 km/h (4 Bft) 100,00 %
08.11.2022 09:12 11,3 C 11,1 C 7,8 C 88 % 1007,9 hPa 0,0 l/m 0 min 0 min 69 W/m 16,1 km/h (3 Bft) 100,00 %
08.11.2022 09:14 11,4 C 11,1 C 7,8 C 88 % 1008,0 hPa 0,0 l/m 0 min 0 min 69 W/m 29,0 km/h (5 Bft) 100,00 %
08.11.2022 09:16 11,4 C 11,1 C 7,8 C 88 % 1007,9 hPa 0,0 l/m 0 min 0 min 69 W/m 22,5 km/h (4 Bft) 95,74 %
08.11.2022 09:18 11,4 C 11,1 C 7,8 C 88 % 1008,0 hPa 0,0 l/m 0 min 0 min 71 W/m 22,5 km/h (4 Bft) 100,00 %
08.11.2022 09:20 11,4 C 11,1 C 7,8 C 87 % 1007,9 hPa 0,0 l/m 0 min 0 min 76 W/m 19,3 km/h (3 Bft) 100,00 %
08.11.2022 09:22 11,4 C 11,1 C 7,8 C 87 % 1008,1 hPa 0,0 l/m 0 min 0 min 77 W/m 35,4 km/h (5 Bft) 97,87 %
08.11.2022 09:24 11,4 C 11,1 C 7,8 C 87 % 1008,1 hPa 0,0 l/m 0 min 0 min 81 W/m 32,2 km/h (5 Bft) 100,00 %
08.11.2022 09:26 11,4 C 11,1 C 7,8 C 87 % 1008,2 hPa 0,0 l/m 0 min 0 min 82 W/m 25,7 km/h (4 Bft) 97,87 %
08.11.2022 09:28 11,4 C 11,1 C 7,8 C 87 % 1008,2 hPa 0,0 l/m 0 min 0 min 86 W/m 29,0 km/h (5 Bft) 100,00 %
08.11.2022 09:30 11,4 C 11,1 C 7,8 C 87 % 1008,2 hPa 0,0 l/m 0 min 0 min 91 W/m 19,3 km/h (3 Bft) 100,00 %
08.11.2022 09:32 11,4 C 11,1 C 7,8 C 87 % 1008,2 hPa 0,0 l/m 0 min 0 min 97 W/m 22,5 km/h (4 Bft) 100,00 %
08.11.2022 09:34 11,5 C 11,1 C 7,8 C 87 % 1008,2 hPa 0,0 l/m 0 min 0 min 102 W/m 19,3 km/h (3 Bft) 100,00 %
08.11.2022 09:36 11,5 C 11,1 C 7,8 C 87 % 1008,1 hPa 0,0 l/m 0 min 0 min 109 W/m 19,3 km/h (3 Bft) 100,00 %
08.11.2022 09:38 11,6 C 11,1 C 7,8 C 87 % 1008,1 hPa 0,0 l/m 0 min 0 min 113 W/m 19,3 km/h (3 Bft) 97,14 %
08.11.2022 09:40 11,6 C 11,7 C 7,8 C 87 % 1008,2 hPa 0,0 l/m 0 min 0 min 118 W/m 25,7 km/h (4 Bft) 100,00 %
08.11.2022 09:42 11,6 C 11,7 C 7,8 C 87 % 1008,1 hPa 0,0 l/m 0 min 0 min 115 W/m 19,3 km/h (3 Bft) 100,00 %
08.11.2022 09:44 11,6 C 11,7 C 7,8 C 87 % 1008,2 hPa 0,0 l/m 0 min 0 min 108 W/m 12,9 km/h (3 Bft) 97,87 %
08.11.2022 09:46 11,6 C 11,7 C 7,8 C 87 % 1008,1 hPa 0,0 l/m 0 min 0 min 105 W/m 19,3 km/h (3 Bft) 97,87 %
08.11.2022 09:48 11,7 C 11,7 C 7,8 C 87 % 1008,1 hPa 0,0 l/m 0 min 0 min 105 W/m 16,1 km/h (3 Bft) 97,87 %
08.11.2022 09:50 11,7 C 11,7 C 7,8 C 87 % 1008,0 hPa 0,0 l/m 0 min 0 min 106 W/m 22,5 km/h (4 Bft) 97,87 %
08.11.2022 09:52 11,7 C 11,7 C 7,8 C 87 % 1008,0 hPa 0,0 l/m 0 min 0 min 110 W/m 16,1 km/h (3 Bft) 100,00 %
08.11.2022 09:54 11,7 C 11,7 C 7,8 C 87 % 1008,0 hPa 0,0 l/m 0 min 0 min 116 W/m 22,5 km/h (4 Bft) 97,83 %
08.11.2022 09:56 11,7 C 11,7 C 8,3 C 87 % 1008,1 hPa 0,0 l/m 0 min 0 min 120 W/m 16,1 km/h (3 Bft) 100,00 %
08.11.2022 09:58 11,8 C 11,7 C 8,3 C 87 % 1008,1 hPa 0,0 l/m 0 min 0 min 119 W/m 19,3 km/h (3 Bft) 100,00 %
08.11.2022 10:00 11,8 C 11,7 C 8,3 C 87 % 1008,1 hPa 0,0 l/m 0 min 0 min 114 W/m 19,3 km/h (3 Bft) 95,74 %
08.11.2022 10:03 11,8 C 11,7 C 8,3 C 86 % 1008,2 hPa 0,0 l/m 0 min 0 min 110 W/m 19,3 km/h (3 Bft) 97,18 %
08.11.2022 10:04 11,8 C 11,7 C 8,3 C 86 % 1008,2 hPa 0,0 l/m 0 min 0 min 106 W/m 12,9 km/h (3 Bft) 96,00 %
08.11.2022 10:06 11,9 C 11,7 C 8,3 C 86 % 1008,3 hPa 0,0 l/m 0 min 0 min 102 W/m 19,3 km/h (3 Bft) 98,28 %
08.11.2022 10:09 11,9 C 11,7 C 8,3 C 86 % 1008,2 hPa 0,0 l/m 0 min 0 min 98 W/m 12,9 km/h (3 Bft) 96,61 %
08.11.2022 10:10 11,9 C 11,7 C 8,3 C 86 % 1008,2 hPa 0,0 l/m 0 min 0 min 96 W/m 16,1 km/h (3 Bft) 100,00 %
08.11.2022 10:12 12,0 C 12,2 C 8,3 C 86 % 1008,3 hPa 0,0 l/m 0 min 0 min 94 W/m 12,9 km/h (3 Bft) 97,87 %
08.11.2022 10:15 12,1 C 12,2 C 8,3 C 85 % 1008,2 hPa 0,0 l/m 0 min 0 min 93 W/m 16,1 km/h (3 Bft) 97,14 %
08.11.2022 10:16 12,1 C 12,2 C 8,3 C 85 % 1008,2 hPa 0,0 l/m 0 min 0 min 92 W/m 16,1 km/h (3 Bft) 100,00 %
08.11.2022 10:18 12,1 C 12,2 C 8,3 C 85 % 1008,2 hPa 0,0 l/m 0 min 0 min 95 W/m 16,1 km/h (3 Bft) 97,83 %
08.11.2022 10:20 12,2 C 12,2 C 8,3 C 85 % 1008,2 hPa 0,0 l/m 0 min 0 min 98 W/m 12,9 km/h (3 Bft) 97,87 %
08.11.2022 10:22 12,2 C 12,2 C 8,3 C 84 % 1008,1 hPa 0,0 l/m 0 min 0 min 98 W/m 12,9 km/h (3 Bft) 97,87 %
08.11.2022 10:24 12,2 C 12,2 C 8,3 C 84 % 1008,1 hPa 0,0 l/m 0 min 0 min 98 W/m 19,3 km/h (3 Bft) 95,74 %
08.11.2022 10:26 12,3 C 12,2 C 8,3 C 84 % 1008,1 hPa 0,0 l/m 0 min 0 min 98 W/m 22,5 km/h (4 Bft) 93,62 %
08.11.2022 10:28 12,3 C 12,2 C 8,3 C 84 % 1008,1 hPa 0,0 l/m 0 min 0 min 102 W/m 29,0 km/h (5 Bft) 97,87 %
08.11.2022 10:30 12,3 C 12,2 C 8,3 C 83 % 1008,1 hPa 0,0 l/m 0 min 0 min 106 W/m 12,9 km/h (3 Bft) 97,83 %
08.11.2022 10:32 12,3 C 12,2 C 8,3 C 83 % 1008,1 hPa 0,0 l/m 0 min 0 min 113 W/m 22,5 km/h (4 Bft) 89,36 %
08.11.2022 10:34 12,4 C 12,2 C 8,9 C 83 % 1008,1 hPa 0,0 l/m 0 min 0 min 118 W/m 19,3 km/h (3 Bft) 95,74 %
08.11.2022 10:36 12,4 C 12,2 C 8,9 C 83 % 1008,1 hPa 0,0 l/m 0 min 0 min 120 W/m 12,9 km/h (3 Bft) 95,74 %
08.11.2022 10:38 12,4 C 12,2 C 8,9 C 83 % 1008,1 hPa 0,0 l/m 0 min 0 min 121 W/m 16,1 km/h (3 Bft) 93,62 %
08.11.2022 10:40 12,5 C 12,2 C 8,9 C 83 % 1008,1 hPa 0,0 l/m 0 min 0 min 123 W/m 16,1 km/h (3 Bft) 93,62 %
08.11.2022 10:42 12,5 C 12,2 C 8,9 C 83 % 1008,1 hPa 0,0 l/m 0 min 0 min 124 W/m 16,1 km/h (3 Bft) 93,48 %
08.11.2022 10:44 12,5 C 12,2 C 8,9 C 83 % 1008,1 hPa 0,0 l/m 0 min 0 min 120 W/m 19,3 km/h (3 Bft) 93,62 %
08.11.2022 10:46 12,5 C 12,2 C 8,9 C 83 % 1008,0 hPa 0,0 l/m 0 min 0 min 118 W/m 16,1 km/h (3 Bft) 89,36 %
08.11.2022 10:48 12,5 C 12,2 C 8,3 C 83 % 1007,9 hPa 0,0 l/m 0 min 0 min 116 W/m 22,5 km/h (4 Bft) 95,74 %
08.11.2022 10:50 12,6 C 12,2 C 8,3 C 83 % 1007,8 hPa 0,0 l/m 0 min 0 min 114 W/m 16,1 km/h (3 Bft) 93,62 %
08.11.2022 10:52 12,6 C 12,2 C 8,9 C 83 % 1007,7 hPa 0,0 l/m 0 min 0 min 112 W/m 22,5 km/h (4 Bft) 93,62 %
08.11.2022 10:54 12,6 C 12,2 C 8,3 C 83 % 1007,6 hPa 0,0 l/m 0 min 0 min 110 W/m 16,1 km/h (3 Bft) 93,88 %
08.11.2022 10:56 12,6 C 12,2 C 8,3 C 83 % 1007,6 hPa 0,0 l/m 0 min 0 min 109 W/m 22,5 km/h (4 Bft) 95,24 %
08.11.2022 10:58 12,6 C 12,2 C 8,3 C 83 % 1007,6 hPa 0,0 l/m 0 min 0 min 112 W/m 19,3 km/h (3 Bft) 94,12 %
08.11.2022 11:00 12,6 C 12,2 C 8,3 C 83 % 1007,6 hPa 0,0 l/m 0 min 0 min 115 W/m 19,3 km/h (3 Bft) 95,74 %
08.11.2022 11:02 12,6 C 12,2 C 8,9 C 83 % 1007,5 hPa 0,0 l/m 0 min 0 min 121 W/m 19,3 km/h (3 Bft) 94,00 %
08.11.2022 11:04 12,6 C 12,2 C 8,9 C 82 % 1007,6 hPa 0,0 l/m 0 min 0 min 123 W/m 16,1 km/h (3 Bft) 93,48 %
08.11.2022 11:06 12,6 C 12,2 C 8,9 C 82 % 1007,6 hPa 0,0 l/m 0 min 0 min 123 W/m 19,3 km/h (3 Bft) 97,87 %
08.11.2022 11:08 12,6 C 12,2 C 8,9 C 82 % 1007,7 hPa 0,0 l/m 0 min 0 min 126 W/m 29,0 km/h (5 Bft) 97,87 %
08.11.2022 11:11 12,7 C 12,8 C 8,9 C 82 % 1007,8 hPa 0,0 l/m 0 min 0 min 132 W/m 16,1 km/h (3 Bft) 95,89 %
08.11.2022 11:12 12,7 C 12,8 C 8,9 C 82 % 1007,8 hPa 0,0 l/m 0 min 0 min 138 W/m 22,5 km/h (4 Bft) 95,83 %
08.11.2022 11:16 12,8 C 12,8 C 8,9 C 82 % 1007,7 hPa 0,0 l/m 0 min 0 min 141 W/m 19,3 km/h (3 Bft) 95,70 %
08.11.2022 11:18 12,8 C 12,8 C 8,9 C 82 % 1007,6 hPa 0,0 l/m 0 min 0 min 139 W/m 16,1 km/h (3 Bft) 100,00 %
08.11.2022 11:20 12,8 C 12,8 C 8,9 C 82 % 1007,7 hPa 0,0 l/m 0 min 0 min 139 W/m 22,5 km/h (4 Bft) 97,87 %
08.11.2022 11:22 12,8 C 12,8 C 8,9 C 82 % 1007,7 hPa 0,0 l/m 0 min 0 min 139 W/m 25,7 km/h (4 Bft) 97,87 %
08.11.2022 11:24 12,9 C 12,8 C 8,9 C 82 % 1007,6 hPa 0,0 l/m 0 min 0 min 140 W/m 19,3 km/h (3 Bft) 95,74 %
08.11.2022 11:26 12,9 C 12,8 C 8,9 C 81 % 1007,6 hPa 0,0 l/m 0 min 0 min 142 W/m 19,3 km/h (3 Bft) 97,83 %
08.11.2022 11:28 13,0 C 12,8 C 8,9 C 81 % 1007,6 hPa 0,0 l/m 0 min 0 min 147 W/m 22,5 km/h (4 Bft) 97,87 %
08.11.2022 11:30 13,0 C 12,8 C 8,9 C 81 % 1007,7 hPa 0,0 l/m 0 min 0 min 154 W/m 16,1 km/h (3 Bft) 100,00 %
08.11.2022 11:32 13,1 C 12,8 C 9,4 C 81 % 1007,6 hPa 0,0 l/m 0 min 0 min 161 W/m 12,9 km/h (3 Bft) 52,38 %
08.11.2022 11:34 13,1 C 13,3 C 9,4 C 81 % 1007,7 hPa 0,0 l/m 0 min 0 min 167 W/m 12,9 km/h (3 Bft) 87,50 %
08.11.2022 11:36 13,2 C 13,3 C 9,4 C 81 % 1007,7 hPa 0,0 l/m 0 min 0 min 176 W/m 25,7 km/h (4 Bft) 100,00 %
08.11.2022 11:38 13,2 C 13,3 C 9,4 C 80 % 1007,6 hPa 0,0 l/m 0 min 0 min 174 W/m 25,7 km/h (4 Bft) 100,00 %
08.11.2022 11:40 13,3 C 13,3 C 9,4 C 81 % 1007,5 hPa 0,0 l/m 0 min 0 min 173 W/m 25,7 km/h (4 Bft) 97,87 %
08.11.2022 11:42 13,3 C 13,3 C 9,4 C 81 % 1007,5 hPa 0,0 l/m 0 min 0 min 163 W/m 29,0 km/h (5 Bft) 100,00 %
08.11.2022 11:44 13,3 C 13,3 C 9,4 C 80 % 1007,5 hPa 0,0 l/m 0 min 0 min 153 W/m 19,3 km/h (3 Bft) 95,74 %
08.11.2022 11:46 13,4 C 13,3 C 9,4 C 80 % 1007,4 hPa 0,0 l/m 0 min 0 min 148 W/m 12,9 km/h (3 Bft) 95,74 %
08.11.2022 11:48 13,4 C 13,3 C 9,4 C 80 % 1007,4 hPa 0,0 l/m 0 min 0 min 151 W/m 16,1 km/h (3 Bft) 100,00 %
08.11.2022 11:50 13,5 C 13,3 C 9,4 C 80 % 1007,4 hPa 0,0 l/m 0 min 0 min 156 W/m 19,3 km/h (3 Bft) 100,00 %
08.11.2022 11:52 13,6 C 13,3 C 9,4 C 81 % 1007,3 hPa 0,0 l/m 0 min 0 min 158 W/m 22,5 km/h (4 Bft) 97,87 %
08.11.2022 11:54 13,6 C 13,3 C 9,4 C 80 % 1007,3 hPa 0,0 l/m 0 min 0 min 160 W/m 19,3 km/h (3 Bft) 100,00 %
08.11.2022 11:56 13,6 C 13,3 C 9,4 C 80 % 1007,3 hPa 0,0 l/m 0 min 0 min 163 W/m 12,9 km/h (3 Bft) 100,00 %
08.11.2022 11:58 13,6 C 13,3 C 9,4 C 80 % 1007,3 hPa 0,0 l/m 0 min 0 min 168 W/m 25,7 km/h (4 Bft) 98,00 %
08.11.2022 12:00 13,6 C 13,9 C 9,4 C 80 % 1007,3 hPa 0,0 l/m 0 min 0 min 164 W/m 19,3 km/h (3 Bft) 100,00 %
08.11.2022 12:02 13,7 C 13,9 C 9,4 C 80 % 1007,4 hPa 0,0 l/m 0 min 0 min 163 W/m 19,3 km/h (3 Bft) 100,00 %
08.11.2022 12:04 13,7 C 13,9 C 9,4 C 80 % 1007,5 hPa 0,0 l/m 0 min 0 min 159 W/m 19,3 km/h (3 Bft) 100,00 %
08.11.2022 12:08 13,8 C 13,9 C 10,0 C 80 % 1007,5 hPa 0,0 l/m 0 min 0 min 161 W/m 22,5 km/h (4 Bft) 98,90 %
08.11.2022 12:10 13,8 C 13,9 C 10,0 C 80 % 1007,6 hPa 0,0 l/m 0 min 0 min 161 W/m 19,3 km/h (3 Bft) 100,00 %
08.11.2022 12:12 13,9 C 13,9 C 10,0 C 80 % 1007,5 hPa 0,0 l/m 0 min 0 min 161 W/m 19,3 km/h (3 Bft) 97,87 %
08.11.2022 12:14 13,9 C 14,4 C 10,0 C 79 % 1007,4 hPa 0,0 l/m 0 min 0 min 168 W/m 19,3 km/h (3 Bft) 100,00 %
08.11.2022 12:16 14,0 C 14,4 C 10,0 C 79 % 1007,3 hPa 0,0 l/m 0 min 0 min 173 W/m 25,7 km/h (4 Bft) 100,00 %
08.11.2022 12:18 14,1 C 14,4 C 10,0 C 79 % 1007,4 hPa 0,0 l/m 0 min 0 min 175 W/m 12,9 km/h (3 Bft) 97,87 %
08.11.2022 12:20 14,1 C 13,9 C 10,0 C 79 % 1007,3 hPa 0,0 l/m 0 min 0 min 163 W/m 16,1 km/h (3 Bft) 97,73 %
08.11.2022 12:23 14,2 C 13,9 C 10,0 C 79 % 1007,4 hPa 0,0 l/m 0 min 0 min 167 W/m 22,5 km/h (4 Bft) 98,63 %
08.11.2022 12:24 14,3 C 13,9 C 10,0 C 79 % 1007,4 hPa 0,0 l/m 0 min 0 min 165 W/m 22,5 km/h (4 Bft) 100,00 %
08.11.2022 12:28 14,3 C 14,4 C 10,0 C 78 % 1007,4 hPa 0,0 l/m 0 min 0 min 162 W/m 22,5 km/h (4 Bft) 100,00 %
08.11.2022 12:30 14,3 C 14,4 C 10,0 C 78 % 1007,4 hPa 0,0 l/m 0 min 0 min 163 W/m 22,5 km/h (4 Bft) 97,87 %
08.11.2022 12:32 14,3 C 14,4 C 10,0 C 78 % 1007,3 hPa 0,0 l/m 0 min 2 min 160 W/m 16,1 km/h (3 Bft) 100,00 %
08.11.2022 12:34 14,3 C 14,4 C 10,0 C 78 % 1007,3 hPa 0,0 l/m 0 min 0 min 154 W/m 25,7 km/h (4 Bft) 100,00 %
08.11.2022 12:36 14,3 C 14,4 C 10,6 C 78 % 1007,3 hPa 0,0 l/m 0 min 0 min 142 W/m 19,3 km/h (3 Bft) 97,87 %
08.11.2022 12:38 14,3 C 14,4 C 10,6 C 78 % 1007,3 hPa 0,0 l/m 0 min 0 min 168 W/m 22,5 km/h (4 Bft) 97,83 %
08.11.2022 12:40 14,4 C 14,4 C 10,6 C 78 % 1007,2 hPa 0,0 l/m 0 min 0 min 169 W/m 22,5 km/h (4 Bft) 95,74 %
08.11.2022 12:42 14,4 C 14,4 C 10,0 C 78 % 1007,3 hPa 0,0 l/m 0 min 0 min 148 W/m 16,1 km/h (3 Bft) 93,62 %
08.11.2022 12:44 14,4 C 14,4 C 10,0 C 79 % 1007,3 hPa 0,0 l/m 0 min 2 min 139 W/m 25,7 km/h (4 Bft) 97,87 %
08.11.2022 12:46 14,5 C 14,4 C 10,0 C 79 % 1007,4 hPa 0,0 l/m 0 min 0 min 135 W/m 22,5 km/h (4 Bft) 97,87 %
08.11.2022 12:48 14,5 C 14,4 C 10,0 C 79 % 1007,4 hPa 0,0 l/m 0 min 2 min 141 W/m 12,9 km/h (3 Bft) 97,87 %
08.11.2022 12:50 14,6 C 14,4 C 10,0 C 79 % 1007,3 hPa 0,0 l/m 0 min 2 min 150 W/m 16,1 km/h (3 Bft) 95,65 %
08.11.2022 12:52 14,6 C 14,4 C 10,0 C 79 % 1007,4 hPa 0,0 l/m 0 min 0 min 164 W/m 19,3 km/h (3 Bft) 95,74 %
08.11.2022 12:54 14,6 C 14,4 C 10,6 C 79 % 1007,3 hPa 0,0 l/m 0 min 0 min 172 W/m 16,1 km/h (3 Bft) 98,00 %
08.11.2022 12:56 14,6 C 15,0 C 10,6 C 79 % 1007,3 hPa 0,0 l/m 2 min 0 min 189 W/m 12,9 km/h (3 Bft) 97,87 %
08.11.2022 12:58 14,7 C 15,0 C 10,6 C 79 % 1007,3 hPa 0,0 l/m 2 min 0 min 242 W/m 12,9 km/h (3 Bft) 97,37 %
08.11.2022 13:00 14,7 C 15,6 C 10,6 C 79 % 1007,3 hPa 0,0 l/m 2 min 0 min 273 W/m 6,4 km/h (2 Bft) 95,74 %
08.11.2022 13:02 14,8 C 15,6 C 10,6 C 79 % 1007,4 hPa 0,0 l/m 2 min 0 min 226 W/m 19,3 km/h (3 Bft) 97,87 %
08.11.2022 13:04 14,8 C 15,6 C 10,6 C 79 % 1007,5 hPa 0,0 l/m 2 min 0 min 220 W/m 12,9 km/h (3 Bft) 95,92 %
08.11.2022 13:06 14,9 C 15,6 C 10,6 C 78 % 1007,6 hPa 0,0 l/m 2 min 0 min 227 W/m 16,1 km/h (3 Bft) 93,22 %
08.11.2022 13:08 15,0 C 16,1 C 10,6 C 78 % 1007,6 hPa 0,0 l/m 2 min 0 min 242 W/m 12,9 km/h (3 Bft) 100,00 %
08.11.2022 13:10 15,1 C 16,1 C 11,1 C 78 % 1007,6 hPa 0,0 l/m 2 min 0 min 241 W/m 16,1 km/h (3 Bft) 93,62 %
08.11.2022 13:12 15,2 C 16,1 C 11,1 C 78 % 1007,6 hPa 0,0 l/m 2 min 0 min 294 W/m 12,9 km/h (3 Bft) 95,74 %
08.11.2022 13:14 15,3 C 16,1 C 11,1 C 77 % 1007,6 hPa 0,0 l/m 2 min 0 min 322 W/m 16,1 km/h (3 Bft) 97,83 %
08.11.2022 13:16 15,4 C 16,1 C 11,1 C 77 % 1007,6 hPa 0,0 l/m 2 min 0 min 231 W/m 12,9 km/h (3 Bft) 97,87 %
08.11.2022 13:18 15,5 C 16,1 C 11,1 C 77 % 1007,6 hPa 0,0 l/m 2 min 0 min 287 W/m 19,3 km/h (3 Bft) 93,62 %
08.11.2022 13:20 15,6 C 16,1 C 11,1 C 77 % 1007,6 hPa 0,0 l/m 2 min 0 min 225 W/m 6,4 km/h (2 Bft) 95,74 %
08.11.2022 13:22 15,7 C 16,1 C 11,1 C 76 % 1007,6 hPa 0,0 l/m 2 min 0 min 233 W/m 12,9 km/h (3 Bft) 93,75 %
08.11.2022 13:24 15,7 C 16,1 C 11,1 C 76 % 1007,6 hPa 0,0 l/m 2 min 0 min 205 W/m 12,9 km/h (3 Bft) 95,74 %
08.11.2022 13:26 15,8 C 16,1 C 11,1 C 76 % 1007,5 hPa 0,0 l/m 2 min 0 min 181 W/m 6,4 km/h (2 Bft) 93,48 %
08.11.2022 13:28 15,8 C 16,1 C 11,1 C 76 % 1007,4 hPa 0,0 l/m 0 min 0 min 166 W/m 22,5 km/h (4 Bft) 93,62 %
08.11.2022 13:31 15,8 C 16,1 C 11,1 C 76 % 1007,2 hPa 0,0 l/m 0 min 0 min 157 W/m 12,9 km/h (3 Bft) 94,87 %
08.11.2022 13:32 15,8 C 16,1 C 11,1 C 76 % 1007,2 hPa 0,0 l/m 0 min 0 min 152 W/m 6,4 km/h (2 Bft) 95,83 %
08.11.2022 13:34 15,8 C 15,6 C 11,1 C 76 % 1007,2 hPa 0,0 l/m 0 min 0 min 143 W/m 16,1 km/h (3 Bft) 93,48 %
08.11.2022 13:36 15,8 C 15,6 C 11,1 C 76 % 1007,1 hPa 0,0 l/m 0 min 0 min 135 W/m 12,9 km/h (3 Bft) 93,62 %
08.11.2022 13:38 15,8 C 15,6 C 11,1 C 76 % 1007,1 hPa 0,0 l/m 0 min 0 min 129 W/m 12,9 km/h (3 Bft) 95,74 %
08.11.2022 13:40 15,8 C 15,6 C 11,1 C 76 % 1007,0 hPa 0,0 l/m 0 min 0 min 133 W/m 12,9 km/h (3 Bft) 95,74 %
08.11.2022 13:43 15,8 C 15,6 C 11,1 C 76 % 1006,9 hPa 0,0 l/m 0 min 0 min 134 W/m 16,1 km/h (3 Bft) 95,71 %
08.11.2022 13:44 15,8 C 15,6 C 11,1 C 76 % 1006,9 hPa 0,0 l/m 0 min 0 min 150 W/m 6,4 km/h (2 Bft) 95,83 %
08.11.2022 13:46 15,8 C 15,6 C 11,1 C 76 % 1006,9 hPa 0,0 l/m 2 min 0 min 185 W/m 12,9 km/h (3 Bft) 95,65 %
08.11.2022 13:48 15,8 C 15,6 C 11,1 C 76 % 1006,7 hPa 0,0 l/m 2 min 0 min 175 W/m 19,3 km/h (3 Bft) 93,62 %
08.11.2022 13:50 15,8 C 15,6 C 11,1 C 77 % 1006,6 hPa 0,0 l/m 2 min 0 min 166 W/m 16,1 km/h (3 Bft) 95,74 %
08.11.2022 13:52 15,8 C 15,6 C 11,1 C 77 % 1006,6 hPa 0,0 l/m 0 min 0 min 144 W/m 12,9 km/h (3 Bft) 95,74 %
08.11.2022 13:54 15,7 C 15,6 C 11,1 C 76 % 1006,7 hPa 0,0 l/m 0 min 0 min 128 W/m 19,3 km/h (3 Bft) 95,24 %
08.11.2022 13:56 15,7 C 15,6 C 11,1 C 77 % 1006,7 hPa 0,0 l/m 2 min 0 min 166 W/m 22,5 km/h (4 Bft) 95,74 %
08.11.2022 13:58 15,7 C 15,6 C 11,1 C 76 % 1006,7 hPa 0,0 l/m 2 min 0 min 200 W/m 16,1 km/h (3 Bft) 97,96 %
08.11.2022 14:00 15,7 C 15,6 C 11,1 C 76 % 1006,8 hPa 0,0 l/m 2 min 0 min 215 W/m 19,3 km/h (3 Bft) 100,00 %
08.11.2022 14:04 15,8 C 15,6 C 11,1 C 76 % 1006,7 hPa 0,0 l/m 4 min 0 min 171 W/m 12,9 km/h (3 Bft) 96,00 %
08.11.2022 14:06 15,8 C 15,6 C 11,1 C 76 % 1006,7 hPa 0,0 l/m 2 min 0 min 195 W/m 19,3 km/h (3 Bft) 95,65 %
08.11.2022 14:08 15,8 C 15,6 C 11,1 C 76 % 1006,6 hPa 0,0 l/m 0 min 0 min 153 W/m 16,1 km/h (3 Bft) 100,00 %
08.11.2022 14:10 15,8 C 15,6 C 11,1 C 76 % 1006,7 hPa 0,0 l/m 2 min 0 min 154 W/m 16,1 km/h (3 Bft) 100,00 %
08.11.2022 14:12 15,8 C 15,6 C 11,1 C 76 % 1006,7 hPa 0,0 l/m 0 min 0 min 136 W/m 16,1 km/h (3 Bft) 100,00 %
08.11.2022 14:14 15,8 C 15,6 C 11,1 C 76 % 1006,6 hPa 0,0 l/m 0 min 0 min 134 W/m 16,1 km/h (3 Bft) 97,87 %
08.11.2022 14:16 15,8 C 15,6 C 11,1 C 76 % 1006,7 hPa 0,0 l/m 0 min 0 min 131 W/m 6,4 km/h (2 Bft) 100,00 %
08.11.2022 14:18 15,8 C 15,6 C 11,1 C 77 % 1006,7 hPa 0,0 l/m 0 min 0 min 126 W/m 12,9 km/h (3 Bft) 100,00 %
08.11.2022 14:20 15,7 C 15,6 C 11,1 C 77 % 1006,7 hPa 0,0 l/m 2 min 0 min 152 W/m 19,3 km/h (3 Bft) 100,00 %
08.11.2022 14:22 15,8 C 15,6 C 11,1 C 77 % 1006,7 hPa 0,0 l/m 2 min 0 min 156 W/m 12,9 km/h (3 Bft) 100,00 %
08.11.2022 14:24 15,8 C 15,6 C 11,1 C 77 % 1006,6 hPa 0,0 l/m 0 min 0 min 136 W/m 12,9 km/h (3 Bft) 100,00 %
08.11.2022 14:26 15,8 C 15,6 C 11,1 C 77 % 1006,6 hPa 0,0 l/m 0 min 0 min 114 W/m 12,9 km/h (3 Bft) 100,00 %
08.11.2022 14:28 15,8 C 15,6 C 11,1 C 77 % 1006,6 hPa 0,0 l/m 0 min 0 min 87 W/m 12,9 km/h (3 Bft) 100,00 %
08.11.2022 14:30 15,8 C 15,0 C 11,1 C 77 % 1006,7 hPa 0,0 l/m 0 min 0 min 66 W/m 19,3 km/h (3 Bft) 100,00 %
08.11.2022 14:32 15,8 C 15,0 C 11,1 C 78 % 1006,7 hPa 0,0 l/m 0 min 0 min 63 W/m 12,9 km/h (3 Bft) 97,87 %
08.11.2022 14:34 15,8 C 15,0 C 11,1 C 77 % 1006,7 hPa 0,0 l/m 0 min 0 min 73 W/m 12,9 km/h (3 Bft) 100,00 %
08.11.2022 14:36 15,8 C 15,0 C 11,1 C 77 % 1006,7 hPa 0,0 l/m 0 min 0 min 106 W/m 12,9 km/h (3 Bft) 97,87 %
08.11.2022 14:38 15,8 C 15,6 C 11,1 C 78 % 1006,7 hPa 0,0 l/m 2 min 0 min 135 W/m 12,9 km/h (3 Bft) 100,00 %
08.11.2022 14:41 15,8 C 15,6 C 11,1 C 78 % 1006,7 hPa 0,0 l/m 3 min 0 min 140 W/m 6,4 km/h (2 Bft) 98,57 %
08.11.2022 14:42 15,8 C 15,6 C 11,1 C 78 % 1006,7 hPa 0,0 l/m 0 min 0 min 128 W/m 3,2 km/h (1 Bft) 95,83 %
08.11.2022 14:44 15,8 C 15,6 C 11,1 C 78 % 1006,7 hPa 0,0 l/m 0 min 0 min 112 W/m 6,4 km/h (2 Bft) 100,00 %
08.11.2022 14:46 15,8 C 15,6 C 11,1 C 77 % 1006,6 hPa 0,0 l/m 0 min 0 min 98 W/m 22,5 km/h (4 Bft) 97,87 %
08.11.2022 14:48 15,9 C 15,6 C 11,1 C 77 % 1006,5 hPa 0,0 l/m 0 min 0 min 100 W/m 12,9 km/h (3 Bft) 95,74 %
08.11.2022 14:51 16,0 C 16,1 C 11,7 C 75 % 1006,4 hPa 0,0 l/m 0 min 0 min 109 W/m 12,9 km/h (3 Bft) 98,57 %
08.11.2022 14:52 16,1 C 16,1 C 11,7 C 75 % 1006,5 hPa 0,0 l/m 0 min 0 min 109 W/m 12,9 km/h (3 Bft) 95,83 %
08.11.2022 14:54 16,1 C 16,1 C 11,7 C 75 % 1006,5 hPa 0,0 l/m 0 min 0 min 113 W/m 16,1 km/h (3 Bft) 97,87 %
08.11.2022 14:56 16,2 C 16,1 C 11,7 C 74 % 1006,5 hPa 0,0 l/m 0 min 0 min 109 W/m 19,3 km/h (3 Bft) 97,83 %
08.11.2022 14:59 16,3 C 16,1 C 11,7 C 73 % 1006,6 hPa 0,0 l/m 0 min 0 min 92 W/m 12,9 km/h (3 Bft) 97,01 %
08.11.2022 15:00 16,4 C 16,1 C 11,7 C 73 % 1006,5 hPa 0,0 l/m 0 min 1 min 73 W/m 6,4 km/h (2 Bft) 100,00 %
08.11.2022 15:04 16,4 C 16,1 C 11,7 C 73 % 1006,6 hPa 0,0 l/m 0 min 0 min 72 W/m 0,0 km/h (0 Bft) 96,30 %
08.11.2022 15:06 16,5 C 16,1 C 11,7 C 73 % 1006,5 hPa 0,0 l/m 0 min 0 min 68 W/m 3,2 km/h (1 Bft) 94,92 %
08.11.2022 15:08 16,5 C 16,1 C 11,7 C 73 % 1006,5 hPa 0,0 l/m 0 min 0 min 56 W/m 3,2 km/h (1 Bft) 97,14 %
08.11.2022 15:10 16,5 C 16,1 C 11,7 C 73 % 1006,5 hPa 0,0 l/m 0 min 0 min 58 W/m 3,2 km/h (1 Bft) 97,87 %
08.11.2022 15:12 16,5 C 16,1 C 11,7 C 73 % 1006,5 hPa 0,0 l/m 0 min 0 min 61 W/m 6,4 km/h (2 Bft) 97,83 %
08.11.2022 15:14 16,6 C 16,1 C 11,7 C 73 % 1006,5 hPa 0,0 l/m 0 min 0 min 69 W/m 6,4 km/h (2 Bft) 95,74 %
08.11.2022 15:16 16,5 C 16,1 C 11,7 C 74 % 1006,5 hPa 0,0 l/m 0 min 0 min 76 W/m 12,9 km/h (3 Bft) 97,87 %
08.11.2022 15:18 16,6 C 16,1 C 11,7 C 73 % 1006,6 hPa 0,0 l/m 0 min 0 min 77 W/m 12,9 km/h (3 Bft) 97,87 %
08.11.2022 15:20 16,5 C 16,1 C 11,7 C 73 % 1006,6 hPa 0,0 l/m 0 min 0 min 73 W/m 9,7 km/h (2 Bft) 97,87 %
08.11.2022 15:22 16,5 C 16,1 C 11,7 C 73 % 1006,5 hPa 0,0 l/m 0 min 0 min 67 W/m 12,9 km/h (3 Bft) 95,65 %
08.11.2022 15:24 16,6 C 15,6 C 11,7 C 73 % 1006,6 hPa 0,0 l/m 0 min 0 min 64 W/m 19,3 km/h (3 Bft) 100,00 %
08.11.2022 15:26 16,5 C 15,6 C 11,7 C 73 % 1006,6 hPa 0,0 l/m 0 min 0 min 66 W/m 16,1 km/h (3 Bft) 100,00 %
08.11.2022 15:28 16,5 C 15,6 C 11,7 C 73 % 1006,6 hPa 0,0 l/m 0 min 0 min 69 W/m 9,7 km/h (2 Bft) 100,00 %
08.11.2022 15:30 16,5 C 15,6 C 11,7 C 73 % 1006,6 hPa 0,0 l/m 0 min 0 min 71 W/m 12,9 km/h (3 Bft) 97,87 %
08.11.2022 15:32 16,5 C 15,6 C 11,7 C 73 % 1006,5 hPa 0,0 l/m 0 min 0 min 73 W/m 6,4 km/h (2 Bft) 100,00 %
08.11.2022 15:34 16,5 C 16,1 C 11,7 C 73 % 1006,5 hPa 0,0 l/m 0 min 0 min 76 W/m 6,4 km/h (2 Bft) 100,00 %
08.11.2022 15:36 16,5 C 15,6 C 11,7 C 73 % 1006,5 hPa 0,0 l/m 0 min 0 min 73 W/m 9,7 km/h (2 Bft) 97,83 %
08.11.2022 15:38 16,5 C 15,6 C 11,7 C 73 % 1006,5 hPa 0,0 l/m 0 min 0 min 69 W/m 16,1 km/h (3 Bft) 100,00 %
08.11.2022 15:40 16,4 C 15,6 C 11,7 C 73 % 1006,5 hPa 0,0 l/m 0 min 0 min 63 W/m 16,1 km/h (3 Bft) 100,00 %
08.11.2022 15:42 16,4 C 15,6 C 11,1 C 73 % 1006,5 hPa 0,0 l/m 0 min 0 min 57 W/m 12,9 km/h (3 Bft) 97,87 %
08.11.2022 15:44 16,4 C 15,6 C 11,1 C 74 % 1006,5 hPa 0,0 l/m 0 min 0 min 52 W/m 9,7 km/h (2 Bft) 100,00 %
08.11.2022 15:46 16,4 C 15,6 C 11,1 C 74 % 1006,5 hPa 0,0 l/m 0 min 0 min 49 W/m 6,4 km/h (2 Bft) 100,00 %
08.11.2022 15:48 16,4 C 15,6 C 11,1 C 74 % 1006,6 hPa 0,0 l/m 0 min 0 min 47 W/m 6,4 km/h (2 Bft) 95,74 %
08.11.2022 15:50 16,4 C 15,6 C 11,1 C 74 % 1006,6 hPa 0,0 l/m 0 min 0 min 44 W/m 9,7 km/h (2 Bft) 97,87 %
08.11.2022 15:52 16,3 C 15,6 C 11,1 C 74 % 1006,6 hPa 0,0 l/m 0 min 0 min 40 W/m 6,4 km/h (2 Bft) 97,87 %
08.11.2022 15:54 16,3 C 15,6 C 11,1 C 74 % 1006,7 hPa 0,0 l/m 0 min 0 min 35 W/m 19,3 km/h (3 Bft) 96,00 %
08.11.2022 15:56 16,3 C 15,6 C 11,1 C 75 % 1006,6 hPa 0,0 l/m 0 min 0 min 33 W/m 12,9 km/h (3 Bft) 95,74 %
08.11.2022 15:58 16,3 C 15,6 C 11,1 C 75 % 1006,6 hPa 0,0 l/m 0 min 0 min 36 W/m 9,7 km/h (2 Bft) 97,92 %
08.11.2022 16:00 16,2 C 15,6 C 11,1 C 75 % 1006,6 hPa 0,0 l/m 0 min 0 min 36 W/m 9,7 km/h (2 Bft) 97,87 %
08.11.2022 16:02 16,2 C 15,6 C 11,1 C 75 % 1006,7 hPa 0,0 l/m 0 min 0 min 35 W/m 3,2 km/h (1 Bft) 97,87 %
08.11.2022 16:04 16,2 C 15,6 C 11,1 C 75 % 1006,7 hPa 0,0 l/m 0 min 0 min 35 W/m 3,2 km/h (1 Bft) 95,74 %
08.11.2022 16:06 16,2 C 15,6 C 11,1 C 75 % 1006,7 hPa 0,0 l/m 0 min 0 min 35 W/m 9,7 km/h (2 Bft) 97,83 %
08.11.2022 16:08 16,2 C 15,6 C 11,1 C 75 % 1006,7 hPa 0,0 l/m 0 min 0 min 33 W/m 12,9 km/h (3 Bft) 95,74 %
08.11.2022 16:10 16,2 C 15,6 C 11,1 C 75 % 1006,7 hPa 0,0 l/m 0 min 0 min 32 W/m 16,1 km/h (3 Bft) 93,62 %
08.11.2022 16:12 16,2 C 15,6 C 11,1 C 75 % 1006,7 hPa 0,0 l/m 0 min 0 min 29 W/m 16,1 km/h (3 Bft) 95,74 %
08.11.2022 16:14 16,2 C 15,6 C 11,1 C 75 % 1006,6 hPa 0,0 l/m 0 min 0 min 24 W/m 12,9 km/h (3 Bft) 95,74 %
08.11.2022 16:16 16,2 C 15,6 C 11,1 C 75 % 1006,5 hPa 0,0 l/m 0 min 0 min 21 W/m 12,9 km/h (3 Bft) 95,74 %
08.11.2022 16:18 16,2 C 15,6 C 11,1 C 75 % 1006,5 hPa 0,0 l/m 0 min 0 min 18 W/m 12,9 km/h (3 Bft) 95,65 %
08.11.2022 16:20 16,2 C 15,6 C 11,1 C 74 % 1006,5 hPa 0,0 l/m 0 min 0 min 14 W/m 16,1 km/h (3 Bft) 95,74 %
08.11.2022 16:22 16,2 C 15,6 C 11,1 C 74 % 1006,5 hPa 0,0 l/m 0 min 0 min 12 W/m 12,9 km/h (3 Bft) 95,74 %
08.11.2022 16:24 16,2 C 15,6 C 11,1 C 74 % 1006,5 hPa 0,0 l/m 0 min 0 min 11 W/m 12,9 km/h (3 Bft) 85,11 %
08.11.2022 16:26 16,2 C 15,6 C 11,1 C 74 % 1006,5 hPa 0,0 l/m 0 min 0 min 11 W/m 16,1 km/h (3 Bft) 62,22 %
08.11.2022 16:28 16,2 C 15,6 C 11,1 C 74 % 1006,4 hPa 0,0 l/m 0 min 0 min 13 W/m 16,1 km/h (3 Bft) 95,74 %
08.11.2022 16:30 16,2 C 15,6 C 11,1 C 74 % 1006,4 hPa 0,0 l/m 0 min 0 min 11 W/m 16,1 km/h (3 Bft) 91,30 %
08.11.2022 16:32 16,2 C 15,6 C 11,1 C 75 % 1006,4 hPa 0,0 l/m 0 min 2 min 9 W/m 16,1 km/h (3 Bft) 95,74 %
08.11.2022 16:34 16,2 C 15,0 C 11,1 C 75 % 1006,3 hPa 0,0 l/m 0 min 0 min 7 W/m 12,9 km/h (3 Bft) 95,74 %
08.11.2022 16:36 16,2 C 15,0 C 11,1 C 75 % 1006,3 hPa 0,0 l/m 0 min 0 min 8 W/m 12,9 km/h (3 Bft) 97,87 %
08.11.2022 16:38 16,2 C 15,0 C 10,6 C 76 % 1006,3 hPa 0,0 l/m 0 min 0 min 9 W/m 16,1 km/h (3 Bft) 97,87 %
08.11.2022 16:40 16,2 C 15,0 C 10,6 C 76 % 1006,3 hPa 0,0 l/m 0 min 0 min 7 W/m 12,9 km/h (3 Bft) 95,74 %
08.11.2022 16:42 16,1 C 15,0 C 11,1 C 76 % 1006,2 hPa 0,0 l/m 0 min 0 min 5 W/m 16,1 km/h (3 Bft) 97,83 %
08.11.2022 16:44 16,1 C 15,0 C 11,1 C 76 % 1006,3 hPa 0,0 l/m 0 min 0 min 1 W/m 12,9 km/h (3 Bft) 97,87 %
08.11.2022 16:46 16,1 C 15,0 C 11,1 C 76 % 1006,3 hPa 0,0 l/m 0 min 0 min 0 W/m 25,7 km/h (4 Bft) 95,74 %
08.11.2022 16:48 16,1 C 15,0 C 11,1 C 75 % 1006,2 hPa 0,0 l/m 0 min 0 min 0 W/m 22,5 km/h (4 Bft) 95,74 %
08.11.2022 16:50 16,1 C 15,0 C 11,1 C 75 % 1006,1 hPa 0,0 l/m 0 min 0 min 0 W/m 12,9 km/h (3 Bft) 97,87 %
08.11.2022 16:52 16,1 C 15,0 C 11,1 C 75 % 1006,1 hPa 0,0 l/m 0 min 0 min 0 W/m 16,1 km/h (3 Bft) 93,88 %
08.11.2022 16:54 16,1 C 15,0 C 11,1 C 75 % 1006,1 hPa 0,0 l/m 0 min 0 min 0 W/m 22,5 km/h (4 Bft) 93,62 %
08.11.2022 16:56 16,1 C 15,0 C 11,1 C 75 % 1006,1 hPa 0,0 l/m 0 min 0 min 0 W/m 22,5 km/h (4 Bft) 97,87 %
08.11.2022 16:58 16,1 C 15,0 C 11,1 C 75 % 1006,1 hPa 0,0 l/m 0 min 0 min 0 W/m 19,3 km/h (3 Bft) 97,62 %
08.11.2022 17:00 16,1 C 15,0 C 11,1 C 75 % 1006,1 hPa 0,0 l/m 0 min 0 min 0 W/m 12,9 km/h (3 Bft) 100,00 %
08.11.2022 17:02 16,1 C 15,0 C 11,1 C 75 % 1006,1 hPa 0,0 l/m 0 min 0 min 0 W/m 19,3 km/h (3 Bft) 97,87 %
08.11.2022 17:04 16,1 C 15,0 C 11,1 C 75 % 1006,0 hPa 0,0 l/m 0 min 0 min 0 W/m 12,9 km/h (3 Bft) 98,00 %
08.11.2022 17:06 16,1 C 15,0 C 11,1 C 75 % 1006,0 hPa 0,0 l/m 0 min 0 min 0 W/m 12,9 km/h (3 Bft) 97,83 %
08.11.2022 17:08 16,1 C 15,0 C 11,1 C 75 % 1006,0 hPa 0,0 l/m 0 min 0 min 0 W/m 12,9 km/h (3 Bft) 97,87 %
08.11.2022 17:10 16,1 C 15,0 C 11,1 C 75 % 1006,0 hPa 0,0 l/m 0 min 0 min 0 W/m 12,9 km/h (3 Bft) 97,87 %
08.11.2022 17:12 16,0 C 15,0 C 11,1 C 75 % 1006,1 hPa 0,0 l/m 0 min 0 min 0 W/m 12,9 km/h (3 Bft) 97,87 %
08.11.2022 17:14 16,0 C 15,0 C 11,1 C 75 % 1006,0 hPa 0,0 l/m 0 min 0 min 0 W/m 16,1 km/h (3 Bft) 97,67 %
08.11.2022 17:16 16,0 C 15,0 C 11,1 C 75 % 1006,1 hPa 0,0 l/m 0 min 0 min 0 W/m 19,3 km/h (3 Bft) 97,83 %
08.11.2022 17:18 16,0 C 15,0 C 11,1 C 75 % 1006,1 hPa 0,0 l/m 0 min 0 min 0 W/m 12,9 km/h (3 Bft) 98,00 %
08.11.2022 17:20 15,9 C 15,0 C 11,1 C 75 % 1006,2 hPa 0,0 l/m 0 min 0 min 0 W/m 9,7 km/h (2 Bft) 97,92 %
08.11.2022 17:22 15,9 C 15,0 C 11,1 C 75 % 1006,3 hPa 0,0 l/m 0 min 0 min 0 W/m 6,4 km/h (2 Bft) 97,87 %
08.11.2022 17:24 15,9 C 15,0 C 11,1 C 75 % 1006,3 hPa 0,0 l/m 0 min 0 min 0 W/m 12,9 km/h (3 Bft) 97,67 %
08.11.2022 17:26 15,9 C 15,0 C 11,1 C 75 % 1006,2 hPa 0,0 l/m 0 min 0 min 0 W/m 6,4 km/h (2 Bft) 100,00 %
08.11.2022 17:28 15,9 C 15,0 C 10,6 C 76 % 1006,0 hPa 0,0 l/m 0 min 0 min 0 W/m 12,9 km/h (3 Bft) 100,00 %
08.11.2022 17:30 15,9 C 15,0 C 10,6 C 76 % 1006,2 hPa 0,0 l/m 0 min 2 min 0 W/m 6,4 km/h (2 Bft) 100,00 %
08.11.2022 17:32 15,9 C 15,0 C 10,6 C 77 % 1006,2 hPa 0,0 l/m 0 min 0 min 0 W/m 12,9 km/h (3 Bft) 100,00 %
08.11.2022 17:34 15,8 C 14,4 C 10,6 C 77 % 1006,1 hPa 0,0 l/m 0 min 0 min 0 W/m 6,4 km/h (2 Bft) 100,00 %
08.11.2022 17:36 15,8 C 14,4 C 10,6 C 78 % 1006,1 hPa 0,0 l/m 0 min 0 min 0 W/m 6,4 km/h (2 Bft) 97,87 %
08.11.2022 17:38 15,8 C 14,4 C 10,6 C 78 % 1006,1 hPa 0,0 l/m 0 min 0 min 0 W/m 12,9 km/h (3 Bft) 100,00 %
08.11.2022 17:40 15,8 C 14,4 C 10,6 C 78 % 1006,1 hPa 0,0 l/m 0 min 0 min 0 W/m 6,4 km/h (2 Bft) 100,00 %
08.11.2022 17:42 15,7 C 14,4 C 10,6 C 78 % 1006,2 hPa 0,0 l/m 0 min 0 min 0 W/m 12,9 km/h (3 Bft) 100,00 %
08.11.2022 17:44 15,7 C 14,4 C 10,6 C 78 % 1006,1 hPa 0,0 l/m 0 min 0 min 0 W/m 12,9 km/h (3 Bft) 97,87 %
08.11.2022 17:46 15,7 C 14,4 C 10,6 C 78 % 1006,1 hPa 0,0 l/m 0 min 0 min 0 W/m 12,9 km/h (3 Bft) 100,00 %
08.11.2022 17:48 15,7 C 14,4 C 10,6 C 78 % 1006,2 hPa 0,0 l/m 0 min 0 min 0 W/m 6,4 km/h (2 Bft) 100,00 %
08.11.2022 17:50 15,7 C 14,4 C 10,6 C 78 % 1006,2 hPa 0,0 l/m 0 min 0 min 0 W/m 6,4 km/h (2 Bft) 100,00 %
08.11.2022 17:52 15,6 C 14,4 C 10,6 C 78 % 1006,2 hPa 0,0 l/m 0 min 0 min 0 W/m 9,7 km/h (2 Bft) 100,00 %
08.11.2022 17:54 15,6 C 14,4 C 10,6 C 78 % 1006,1 hPa 0,0 l/m 0 min 0 min 0 W/m 12,9 km/h (3 Bft) 100,00 %
08.11.2022 17:56 15,6 C 14,4 C 10,6 C 78 % 1006,1 hPa 0,0 l/m 0 min 2 min 0 W/m 9,7 km/h (2 Bft) 100,00 %
08.11.2022 17:58 15,6 C 14,4 C 10,6 C 78 % 1006,2 hPa 0,0 l/m 0 min 2 min 0 W/m 12,9 km/h (3 Bft) 100,00 %
08.11.2022 18:00 15,6 C 14,4 C 10,6 C 78 % 1006,2 hPa 0,0 l/m 0 min 0 min 0 W/m 9,7 km/h (2 Bft) 100,00 %
08.11.2022 18:02 15,6 C 14,4 C 10,6 C 78 % 1006,2 hPa 0,0 l/m 0 min 0 min 0 W/m 9,7 km/h (2 Bft) 100,00 %
08.11.2022 18:04 15,6 C 14,4 C 10,6 C 78 % 1006,2 hPa 0,0 l/m 0 min 0 min 0 W/m 12,9 km/h (3 Bft) 100,00 %
08.11.2022 18:08 15,5 C 14,4 C 10,6 C 78 % 1006,2 hPa 0,0 l/m 0 min 0 min 0 W/m 16,1 km/h (3 Bft) 100,00 %
08.11.2022 18:10 15,5 C 14,4 C 10,6 C 78 % 1006,2 hPa 0,0 l/m 0 min 0 min 0 W/m 16,1 km/h (3 Bft) 97,87 %
08.11.2022 18:12 15,5 C 14,4 C 10,6 C 78 % 1006,2 hPa 0,0 l/m 0 min 0 min 0 W/m 22,5 km/h (4 Bft) 100,00 %
08.11.2022 18:14 15,5 C 14,4 C 10,6 C 78 % 1006,3 hPa 0,0 l/m 0 min 0 min 0 W/m 3,2 km/h (1 Bft) 97,87 %
08.11.2022 18:16 15,5 C 14,4 C 10,6 C 78 % 1006,3 hPa 0,0 l/m 0 min 0 min 0 W/m 16,1 km/h (3 Bft) 96,23 %
08.11.2022 18:18 15,5 C 14,4 C 10,6 C 78 % 1006,3 hPa 0,0 l/m 0 min 0 min 0 W/m 12,9 km/h (3 Bft) 100,00 %
08.11.2022 18:20 15,5 C 14,4 C 10,6 C 78 % 1006,3 hPa 0,0 l/m 0 min 0 min 0 W/m 12,9 km/h (3 Bft) 100,00 %
08.11.2022 18:22 15,5 C 14,4 C 10,6 C 78 % 1006,2 hPa 0,0 l/m 0 min 0 min 0 W/m 16,1 km/h (3 Bft) 100,00 %
08.11.2022 18:24 15,5 C 14,4 C 10,6 C 78 % 1006,2 hPa 0,0 l/m 0 min 0 min 0 W/m 12,9 km/h (3 Bft) 100,00 %
08.11.2022 18:26 15,5 C 14,4 C 10,6 C 78 % 1006,3 hPa 0,0 l/m 0 min 0 min 0 W/m 12,9 km/h (3 Bft) 100,00 %
08.11.2022 18:28 15,4 C 14,4 C 10,6 C 79 % 1006,3 hPa 0,0 l/m 0 min 0 min 0 W/m 16,1 km/h (3 Bft) 100,00 %
08.11.2022 18:30 15,4 C 14,4 C 10,6 C 79 % 1006,4 hPa 0,0 l/m 0 min 0 min 0 W/m 6,4 km/h (2 Bft) 100,00 %
08.11.2022 18:32 15,5 C 14,4 C 10,6 C 79 % 1006,4 hPa 0,0 l/m 0 min 0 min 0 W/m 19,3 km/h (3 Bft) 97,87 %
08.11.2022 18:34 15,4 C 14,4 C 10,6 C 79 % 1006,4 hPa 0,0 l/m 0 min 0 min 0 W/m 6,4 km/h (2 Bft) 97,87 %
08.11.2022 18:36 15,4 C 14,4 C 10,6 C 79 % 1006,4 hPa 0,0 l/m 0 min 0 min 0 W/m 12,9 km/h (3 Bft) 97,87 %
08.11.2022 18:38 15,4 C 14,4 C 10,6 C 79 % 1006,4 hPa 0,0 l/m 0 min 0 min 0 W/m 6,4 km/h (2 Bft) 95,74 %
08.11.2022 18:40 15,4 C 14,4 C 10,6 C 79 % 1006,4 hPa 0,0 l/m 0 min 0 min 0 W/m 6,4 km/h (2 Bft) 97,83 %
08.11.2022 18:42 15,4 C 14,4 C 10,6 C 79 % 1006,4 hPa 0,0 l/m 0 min 0 min 0 W/m 6,4 km/h (2 Bft) 95,74 %
08.11.2022 18:44 15,4 C 14,4 C 10,6 C 79 % 1006,4 hPa 0,0 l/m 0 min 0 min 0 W/m 6,4 km/h (2 Bft) 97,87 %
08.11.2022 18:46 15,4 C 14,4 C 10,6 C 79 % 1006,4 hPa 0,0 l/m 0 min 0 min 0 W/m 6,4 km/h (2 Bft) 95,74 %
08.11.2022 18:48 15,4 C 14,4 C 10,6 C 79 % 1006,4 hPa 0,0 l/m 0 min 0 min 0 W/m 6,4 km/h (2 Bft) 95,74 %
08.11.2022 18:50 15,4 C 14,4 C 10,6 C 79 % 1006,4 hPa 0,0 l/m 0 min 0 min 0 W/m 16,1 km/h (3 Bft) 93,48 %
08.11.2022 18:52 15,3 C 14,4 C 10,6 C 79 % 1006,4 hPa 0,0 l/m 0 min 0 min 0 W/m 6,4 km/h (2 Bft) 95,74 %
08.11.2022 18:54 15,3 C 14,4 C 10,6 C 79 % 1006,4 hPa 0,0 l/m 0 min 0 min 0 W/m 6,4 km/h (2 Bft) 93,62 %
08.11.2022 18:56 15,3 C 14,4 C 10,6 C 79 % 1006,4 hPa 0,0 l/m 0 min 0 min 0 W/m 6,4 km/h (2 Bft) 93,62 %
08.11.2022 18:58 15,3 C 14,4 C 10,6 C 79 % 1006,4 hPa 0,0 l/m 0 min 0 min 0 W/m 3,2 km/h (1 Bft) 93,02 %
08.11.2022 19:00 15,3 C 14,4 C 10,6 C 79 % 1006,5 hPa 0,0 l/m 0 min 0 min 0 W/m 6,4 km/h (2 Bft) 92,59 %
08.11.2022 19:02 15,3 C 14,4 C 10,6 C 80 % 1006,5 hPa 0,0 l/m 0 min 0 min 0 W/m 6,4 km/h (2 Bft) 91,84 %
08.11.2022 19:04 15,3 C 14,4 C 10,6 C 80 % 1006,4 hPa 0,0 l/m 0 min 0 min 0 W/m 6,4 km/h (2 Bft) 92,00 %
08.11.2022 19:06 15,3 C 14,4 C 10,6 C 80 % 1006,4 hPa 0,0 l/m 0 min 0 min 0 W/m 12,9 km/h (3 Bft) 93,62 %
08.11.2022 19:08 15,3 C 14,4 C 10,6 C 80 % 1006,4 hPa 0,0 l/m 0 min 0 min 0 W/m 6,4 km/h (2 Bft) 91,49 %
08.11.2022 19:10 15,3 C 14,4 C 10,6 C 80 % 1006,5 hPa 0,0 l/m 0 min 0 min 0 W/m 9,7 km/h (2 Bft) 97,37 %
08.11.2022 19:12 15,3 C 14,4 C 10,6 C 80 % 1006,5 hPa 0,0 l/m 0 min 0 min 0 W/m 12,9 km/h (3 Bft) 91,49 %
08.11.2022 19:14 15,3 C 14,4 C 10,6 C 80 % 1006,4 hPa 0,0 l/m 0 min 0 min 0 W/m 16,1 km/h (3 Bft) 93,62 %
08.11.2022 19:16 15,3 C 14,4 C 10,6 C 79 % 1006,4 hPa 0,0 l/m 0 min 0 min 0 W/m 9,7 km/h (2 Bft) 93,48 %
08.11.2022 19:18 15,3 C 14,4 C 10,6 C 79 % 1006,4 hPa 0,0 l/m 0 min 0 min 0 W/m 6,4 km/h (2 Bft) 91,49 %
08.11.2022 19:20 15,3 C 14,4 C 10,6 C 79 % 1006,4 hPa 0,0 l/m 0 min 0 min 0 W/m 12,9 km/h (3 Bft) 94,64 %
08.11.2022 19:22 15,3 C 14,4 C 10,6 C 79 % 1006,4 hPa 0,0 l/m 0 min 0 min 0 W/m 6,4 km/h (2 Bft) 97,87 %
08.11.2022 19:24 15,3 C 14,4 C 10,6 C 79 % 1006,3 hPa 0,0 l/m 0 min 0 min 0 W/m 6,4 km/h (2 Bft) 97,83 %
08.11.2022 19:26 15,4 C 14,4 C 10,6 C 79 % 1006,3 hPa 0,0 l/m 0 min 0 min 0 W/m 16,1 km/h (3 Bft) 95,74 %
08.11.2022 19:28 15,4 C 14,4 C 10,6 C 79 % 1006,3 hPa 0,0 l/m 0 min 0 min 0 W/m 16,1 km/h (3 Bft) 97,87 %
08.11.2022 19:30 15,4 C 14,4 C 10,6 C 79 % 1006,3 hPa 0,0 l/m 0 min 0 min 0 W/m 6,4 km/h (2 Bft) 95,74 %
08.11.2022 19:32 15,4 C 14,4 C 10,6 C 79 % 1006,3 hPa 0,0 l/m 0 min 0 min 0 W/m 16,1 km/h (3 Bft) 97,87 %
08.11.2022 19:34 15,4 C 14,4 C 10,6 C 79 % 1006,4 hPa 0,0 l/m 0 min 0 min 0 W/m 12,9 km/h (3 Bft) 97,87 %
08.11.2022 19:36 15,4 C 14,4 C 10,6 C 78 % 1006,3 hPa 0,0 l/m 0 min 0 min 0 W/m 25,7 km/h (4 Bft) 94,74 %
08.11.2022 19:38 15,4 C 14,4 C 10,6 C 78 % 1006,4 hPa 0,0 l/m 0 min 0 min 0 W/m 12,9 km/h (3 Bft) 95,65 %
08.11.2022 19:40 15,4 C 14,4 C 10,6 C 78 % 1006,4 hPa 0,0 l/m 0 min 0 min 0 W/m 19,3 km/h (3 Bft) 95,74 %
08.11.2022 19:42 15,4 C 14,4 C 10,6 C 78 % 1006,4 hPa 0,0 l/m 0 min 0 min 0 W/m 16,1 km/h (3 Bft) 97,87 %
08.11.2022 19:44 15,4 C 14,4 C 10,6 C 78 % 1006,4 hPa 0,0 l/m 0 min 0 min 0 W/m 12,9 km/h (3 Bft) 96,43 %
08.11.2022 19:46 15,5 C 14,4 C 10,6 C 78 % 1006,4 hPa 0,0 l/m 0 min 0 min 0 W/m 12,9 km/h (3 Bft) 97,83 %
08.11.2022 19:48 15,4 C 14,4 C 10,6 C 78 % 1006,3 hPa 0,0 l/m 0 min 0 min 0 W/m 16,1 km/h (3 Bft) 94,87 %
08.11.2022 19:50 15,5 C 14,4 C 10,6 C 78 % 1006,3 hPa 0,0 l/m 0 min 0 min 0 W/m 12,9 km/h (3 Bft) 89,13 %
08.11.2022 19:52 15,5 C 14,4 C 10,6 C 78 % 1006,4 hPa 0,0 l/m 0 min 0 min 0 W/m 12,9 km/h (3 Bft) 93,62 %
08.11.2022 19:54 15,5 C 14,4 C 10,6 C 78 % 1006,4 hPa 0,0 l/m 0 min 0 min 0 W/m 16,1 km/h (3 Bft) 97,87 %
08.11.2022 19:56 15,5 C 14,4 C 10,6 C 78 % 1006,4 hPa 0,0 l/m 0 min 0 min 0 W/m 16,1 km/h (3 Bft) 100,00 %
08.11.2022 19:58 15,5 C 14,4 C 10,6 C 78 % 1006,4 hPa 0,0 l/m 0 min 0 min 0 W/m 19,3 km/h (3 Bft) 100,00 %
08.11.2022 20:00 15,5 C 14,4 C 10,6 C 78 % 1006,4 hPa 0,0 l/m 0 min 0 min 0 W/m 12,9 km/h (3 Bft) 97,87 %
08.11.2022 20:02 15,6 C 14,4 C 10,6 C 78 % 1006,3 hPa 0,0 l/m 0 min 0 min 0 W/m 12,9 km/h (3 Bft) 100,00 %
08.11.2022 20:04 15,6 C 14,4 C 10,6 C 78 % 1006,3 hPa 0,0 l/m 0 min 0 min 0 W/m 16,1 km/h (3 Bft) 100,00 %
08.11.2022 20:06 15,6 C 14,4 C 10,6 C 78 % 1006,4 hPa 0,0 l/m 0 min 0 min 0 W/m 16,1 km/h (3 Bft) 98,31 %
08.11.2022 20:08 15,6 C 14,4 C 10,6 C 78 % 1006,4 hPa 0,0 l/m 0 min 0 min 0 W/m 16,1 km/h (3 Bft) 100,00 %
08.11.2022 20:10 15,6 C 14,4 C 10,6 C 78 % 1006,3 hPa 0,0 l/m 0 min 0 min 0 W/m 12,9 km/h (3 Bft) 95,74 %
08.11.2022 20:12 15,5 C 14,4 C 10,6 C 78 % 1006,3 hPa 0,0 l/m 0 min 0 min 0 W/m 6,4 km/h (2 Bft) 95,74 %
08.11.2022 20:14 15,5 C 14,4 C 10,6 C 78 % 1006,4 hPa 0,0 l/m 0 min 0 min 0 W/m 9,7 km/h (2 Bft) 100,00 %
08.11.2022 20:16 15,5 C 14,4 C 10,6 C 78 % 1006,4 hPa 0,0 l/m 0 min 0 min 0 W/m 12,9 km/h (3 Bft) 100,00 %
08.11.2022 20:18 15,5 C 14,4 C 10,6 C 78 % 1006,4 hPa 0,0 l/m 0 min 0 min 0 W/m 6,4 km/h (2 Bft) 97,87 %
08.11.2022 20:20 15,5 C 14,4 C 10,6 C 78 % 1006,4 hPa 0,0 l/m 0 min 0 min 0 W/m 12,9 km/h (3 Bft) 97,87 %
08.11.2022 20:22 15,4 C 14,4 C 10,6 C 79 % 1006,4 hPa 0,0 l/m 0 min 0 min 0 W/m 6,4 km/h (2 Bft) 97,87 %
08.11.2022 20:24 15,4 C 14,4 C 10,6 C 79 % 1006,3 hPa 0,0 l/m 0 min 0 min 0 W/m 9,7 km/h (2 Bft) 97,87 %
08.11.2022 20:26 15,4 C 14,4 C 10,6 C 79 % 1006,3 hPa 0,0 l/m 0 min 0 min 0 W/m 6,4 km/h (2 Bft) 100,00 %
08.11.2022 20:28 15,4 C 14,4 C 10,6 C 79 % 1006,3 hPa 0,0 l/m 0 min 0 min 0 W/m 6,4 km/h (2 Bft) 100,00 %
08.11.2022 20:30 15,4 C 14,4 C 10,6 C 79 % 1006,3 hPa 0,0 l/m 0 min 0 min 0 W/m 12,9 km/h (3 Bft) 97,87 %
08.11.2022 20:32 15,4 C 14,4 C 10,6 C 79 % 1006,4 hPa 0,0 l/m 0 min 0 min 0 W/m 6,4 km/h (2 Bft) 97,87 %
08.11.2022 20:34 15,3 C 14,4 C 10,6 C 79 % 1006,3 hPa 0,0 l/m 0 min 0 min 0 W/m 12,9 km/h (3 Bft) 97,87 %
08.11.2022 20:36 15,3 C 14,4 C 10,6 C 79 % 1006,4 hPa 0,0 l/m 0 min 0 min 0 W/m 6,4 km/h (2 Bft) 95,74 %
08.11.2022 20:38 15,3 C 14,4 C 10,6 C 79 % 1006,4 hPa 0,0 l/m 0 min 0 min 0 W/m 6,4 km/h (2 Bft) 100,00 %
08.11.2022 20:40 15,3 C 14,4 C 10,6 C 79 % 1006,4 hPa 0,0 l/m 0 min 0 min 0 W/m 6,4 km/h (2 Bft) 95,74 %
08.11.2022 20:42 15,3 C 14,4 C 10,6 C 79 % 1006,4 hPa 0,0 l/m 0 min 0 min 0 W/m 12,9 km/h (3 Bft) 96,30 %
08.11.2022 20:44 15,3 C 14,4 C 10,0 C 80 % 1006,3 hPa 0,0 l/m 0 min 0 min 0 W/m 9,7 km/h (2 Bft) 95,74 %
08.11.2022 20:46 15,2 C 13,9 C 10,0 C 80 % 1006,3 hPa 0,0 l/m 0 min 0 min 0 W/m 6,4 km/h (2 Bft) 97,83 %
08.11.2022 20:48 15,2 C 13,9 C 10,0 C 80 % 1006,5 hPa 0,0 l/m 0 min 0 min 0 W/m 12,9 km/h (3 Bft) 91,49 %
08.11.2022 20:50 15,2 C 13,9 C 10,0 C 80 % 1006,4 hPa 0,0 l/m 0 min 0 min 0 W/m 9,7 km/h (2 Bft) 97,87 %
08.11.2022 20:52 15,2 C 14,4 C 10,0 C 80 % 1006,5 hPa 0,0 l/m 0 min 0 min 0 W/m 12,9 km/h (3 Bft) 97,87 %
08.11.2022 20:54 15,2 C 13,9 C 10,0 C 80 % 1006,5 hPa 0,0 l/m 0 min 0 min 0 W/m 9,7 km/h (2 Bft) 95,74 %
08.11.2022 20:56 15,2 C 14,4 C 10,6 C 80 % 1006,5 hPa 0,0 l/m 0 min 0 min 0 W/m 12,9 km/h (3 Bft) 97,87 %
08.11.2022 20:58 15,1 C 14,4 C 10,6 C 80 % 1006,6 hPa 0,0 l/m 0 min 0 min 0 W/m 12,9 km/h (3 Bft) 97,83 %
08.11.2022 21:00 15,1 C 13,9 C 10,0 C 80 % 1006,6 hPa 0,0 l/m 0 min 0 min 0 W/m 6,4 km/h (2 Bft) 95,74 %
08.11.2022 21:02 15,1 C 13,9 C 10,0 C 80 % 1006,6 hPa 0,0 l/m 0 min 0 min 0 W/m 6,4 km/h (2 Bft) 93,62 %
08.11.2022 21:04 15,1 C 13,9 C 10,0 C 80 % 1006,5 hPa 0,0 l/m 0 min 0 min 0 W/m 9,7 km/h (2 Bft) 97,56 %
08.11.2022 21:06 15,1 C 13,9 C 10,0 C 80 % 1006,7 hPa 0,0 l/m 0 min 0 min 0 W/m 9,7 km/h (2 Bft) 95,74 %
08.11.2022 21:08 15,0 C 13,9 C 10,0 C 80 % 1006,7 hPa 0,0 l/m 0 min 0 min 0 W/m 6,4 km/h (2 Bft) 98,18 %
08.11.2022 21:10 15,0 C 13,9 C 10,0 C 81 % 1006,7 hPa 0,0 l/m 0 min 0 min 0 W/m 6,4 km/h (2 Bft) 97,87 %
08.11.2022 21:12 14,9 C 13,9 C 10,0 C 81 % 1006,7 hPa 0,0 l/m 0 min 0 min 0 W/m 16,1 km/h (3 Bft) 95,74 %
08.11.2022 21:14 14,9 C 13,9 C 10,0 C 81 % 1006,7 hPa 0,0 l/m 0 min 0 min 0 W/m 6,4 km/h (2 Bft) 100,00 %
08.11.2022 21:16 14,9 C 13,9 C 10,0 C 81 % 1006,8 hPa 0,0 l/m 0 min 0 min 0 W/m 9,7 km/h (2 Bft) 100,00 %
08.11.2022 21:18 14,9 C 13,9 C 10,0 C 81 % 1006,8 hPa 0,0 l/m 0 min 0 min 0 W/m 6,4 km/h (2 Bft) 97,87 %
08.11.2022 21:20 14,8 C 13,9 C 10,0 C 81 % 1006,8 hPa 0,0 l/m 0 min 0 min 0 W/m 6,4 km/h (2 Bft) 100,00 %
08.11.2022 21:22 14,8 C 13,9 C 10,0 C 81 % 1006,8 hPa 0,0 l/m 0 min 0 min 0 W/m 6,4 km/h (2 Bft) 97,87 %
08.11.2022 21:24 14,8 C 13,9 C 10,0 C 81 % 1006,8 hPa 0,0 l/m 0 min 0 min 0 W/m 12,9 km/h (3 Bft) 100,00 %
08.11.2022 21:26 14,8 C 13,9 C 10,0 C 81 % 1006,8 hPa 0,0 l/m 0 min 0 min 0 W/m 6,4 km/h (2 Bft) 95,74 %
08.11.2022 21:28 14,8 C 13,9 C 10,0 C 81 % 1006,8 hPa 0,0 l/m 0 min 0 min 0 W/m 9,7 km/h (2 Bft) 97,87 %
08.11.2022 21:30 14,8 C 13,9 C 10,0 C 81 % 1006,8 hPa 0,0 l/m 0 min 0 min 0 W/m 12,9 km/h (3 Bft) 97,87 %
08.11.2022 21:32 14,8 C 13,9 C 10,0 C 82 % 1006,8 hPa 0,0 l/m 0 min 0 min 0 W/m 9,7 km/h (2 Bft) 93,48 %
08.11.2022 21:34 14,8 C 13,9 C 10,0 C 82 % 1006,8 hPa 0,0 l/m 0 min 0 min 0 W/m 16,1 km/h (3 Bft) 93,62 %
08.11.2022 21:36 14,8 C 14,4 C 10,0 C 81 % 1006,9 hPa 0,0 l/m 0 min 0 min 0 W/m 12,9 km/h (3 Bft) 93,62 %
08.11.2022 21:38 14,9 C 14,4 C 10,0 C 82 % 1006,9 hPa 0,0 l/m 0 min 0 min 0 W/m 12,9 km/h (3 Bft) 97,87 %
08.11.2022 21:40 14,9 C 14,4 C 10,0 C 81 % 1006,9 hPa 0,0 l/m 0 min 0 min 0 W/m 6,4 km/h (2 Bft) 97,87 %
08.11.2022 21:42 14,9 C 13,9 C 10,0 C 81 % 1006,9 hPa 0,0 l/m 0 min 0 min 0 W/m 12,9 km/h (3 Bft) 97,87 %
08.11.2022 21:44 14,9 C 13,9 C 10,0 C 81 % 1006,9 hPa 0,0 l/m 0 min 0 min 0 W/m 12,9 km/h (3 Bft) 97,83 %
08.11.2022 21:46 14,9 C 13,9 C 10,0 C 81 % 1006,8 hPa 0,0 l/m 0 min 0 min 0 W/m 12,9 km/h (3 Bft) 93,62 %
08.11.2022 21:48 14,9 C 13,9 C 10,0 C 81 % 1006,8 hPa 0,0 l/m 0 min 0 min 0 W/m 12,9 km/h (3 Bft) 95,74 %
08.11.2022 21:50 14,9 C 13,9 C 10,0 C 81 % 1006,9 hPa 0,0 l/m 0 min 0 min 0 W/m 6,4 km/h (2 Bft) 95,74 %
08.11.2022 21:52 14,9 C 13,9 C 10,0 C 81 % 1006,8 hPa 0,0 l/m 0 min 0 min 0 W/m 6,4 km/h (2 Bft) 95,74 %
08.11.2022 21:54 14,9 C 13,9 C 10,0 C 81 % 1006,8 hPa 0,0 l/m 0 min 0 min 0 W/m 6,4 km/h (2 Bft) 91,49 %
08.11.2022 21:56 14,9 C 13,9 C 10,0 C 81 % 1006,8 hPa 0,0 l/m 0 min 0 min 0 W/m 6,4 km/h (2 Bft) 93,48 %
08.11.2022 21:58 14,8 C 13,9 C 10,0 C 81 % 1006,8 hPa 0,0 l/m 0 min 0 min 0 W/m 12,9 km/h (3 Bft) 95,74 %
08.11.2022 22:00 14,8 C 13,9 C 10,0 C 81 % 1006,7 hPa 0,0 l/m 0 min 0 min 0 W/m 6,4 km/h (2 Bft) 95,74 %
08.11.2022 22:02 14,8 C 13,9 C 10,0 C 81 % 1006,7 hPa 0,0 l/m 0 min 0 min 0 W/m 6,4 km/h (2 Bft) 93,62 %
08.11.2022 22:04 14,8 C 13,9 C 10,0 C 81 % 1006,6 hPa 0,0 l/m 0 min 0 min 0 W/m 16,1 km/h (3 Bft) 95,74 %
08.11.2022 22:06 14,7 C 13,9 C 10,0 C 81 % 1006,7 hPa 0,0 l/m 0 min 0 min 0 W/m 6,4 km/h (2 Bft) 93,62 %
08.11.2022 22:08 14,7 C 13,9 C 10,0 C 82 % 1006,6 hPa 0,0 l/m 0 min 0 min 0 W/m 12,9 km/h (3 Bft) 93,48 %
08.11.2022 22:10 14,7 C 13,9 C 10,0 C 82 % 1006,6 hPa 0,0 l/m 0 min 0 min 0 W/m 12,9 km/h (3 Bft) 95,74 %
08.11.2022 22:12 14,7 C 13,9 C 10,0 C 82 % 1006,7 hPa 0,0 l/m 0 min 0 min 0 W/m 12,9 km/h (3 Bft) 93,62 %
08.11.2022 22:14 14,6 C 13,9 C 10,0 C 82 % 1006,7 hPa 0,0 l/m 0 min 0 min 0 W/m 6,4 km/h (2 Bft) 95,74 %
08.11.2022 22:16 14,6 C 13,9 C 10,0 C 82 % 1006,7 hPa 0,0 l/m 0 min 0 min 0 W/m 12,9 km/h (3 Bft) 91,49 %
08.11.2022 22:18 14,6 C 13,9 C 10,0 C 82 % 1006,7 hPa 0,0 l/m 0 min 0 min 0 W/m 16,1 km/h (3 Bft) 97,87 %
08.11.2022 22:20 14,6 C 13,9 C 10,0 C 82 % 1006,8 hPa 0,0 l/m 0 min 0 min 0 W/m 12,9 km/h (3 Bft) 93,48 %
08.11.2022 22:22 14,6 C 13,9 C 10,0 C 82 % 1006,8 hPa 0,0 l/m 0 min 0 min 0 W/m 6,4 km/h (2 Bft) 97,87 %
08.11.2022 22:24 14,6 C 13,9 C 10,0 C 82 % 1006,9 hPa 0,0 l/m 0 min 0 min 0 W/m 12,9 km/h (3 Bft) 93,62 %
08.11.2022 22:26 14,6 C 13,9 C 10,0 C 82 % 1006,8 hPa 0,0 l/m 0 min 0 min 0 W/m 16,1 km/h (3 Bft) 95,74 %
08.11.2022 22:28 14,6 C 13,9 C 10,0 C 82 % 1006,9 hPa 0,0 l/m 0 min 0 min 0 W/m 9,7 km/h (2 Bft) 95,74 %
08.11.2022 22:30 14,6 C 13,3 C 10,0 C 83 % 1006,8 hPa 0,0 l/m 0 min 0 min 0 W/m 12,9 km/h (3 Bft) 97,87 %
08.11.2022 22:32 14,6 C 13,9 C 10,0 C 83 % 1006,9 hPa 0,0 l/m 0 min 0 min 0 W/m 16,1 km/h (3 Bft) 100,00 %
08.11.2022 22:34 14,5 C 13,3 C 10,0 C 83 % 1006,8 hPa 0,0 l/m 0 min 0 min 0 W/m 16,1 km/h (3 Bft) 97,87 %
08.11.2022 22:36 14,5 C 13,3 C 10,0 C 83 % 1006,8 hPa 0,0 l/m 0 min 0 min 0 W/m 16,1 km/h (3 Bft) 97,87 %
08.11.2022 22:38 14,5 C 13,3 C 10,0 C 83 % 1006,9 hPa 0,0 l/m 0 min 0 min 0 W/m 12,9 km/h (3 Bft) 97,87 %
08.11.2022 22:40 14,5 C 13,3 C 9,4 C 83 % 1006,8 hPa 0,0 l/m 0 min 0 min 0 W/m 6,4 km/h (2 Bft) 97,87 %
08.11.2022 22:42 14,4 C 13,3 C 9,4 C 83 % 1006,8 hPa 0,0 l/m 0 min 0 min 0 W/m 19,3 km/h (3 Bft) 97,87 %
08.11.2022 22:44 14,4 C 13,3 C 9,4 C 83 % 1006,8 hPa 0,0 l/m 0 min 0 min 0 W/m 12,9 km/h (3 Bft) 97,83 %
08.11.2022 22:46 14,3 C 13,3 C 9,4 C 83 % 1006,9 hPa 0,0 l/m 0 min 0 min 0 W/m 6,4 km/h (2 Bft) 95,74 %
08.11.2022 22:48 14,3 C 13,3 C 9,4 C 83 % 1007,0 hPa 0,0 l/m 0 min 0 min 0 W/m 3,2 km/h (1 Bft) 95,74 %
08.11.2022 22:50 14,3 C 13,3 C 9,4 C 83 % 1007,0 hPa 0,0 l/m 0 min 0 min 0 W/m 12,9 km/h (3 Bft) 95,74 %
08.11.2022 22:52 14,3 C 13,3 C 9,4 C 83 % 1007,0 hPa 0,0 l/m 0 min 0 min 0 W/m 16,1 km/h (3 Bft) 97,87 %
08.11.2022 22:54 14,3 C 13,3 C 9,4 C 83 % 1006,9 hPa 0,0 l/m 0 min 0 min 0 W/m 6,4 km/h (2 Bft) 95,74 %
08.11.2022 22:56 14,3 C 13,3 C 9,4 C 83 % 1007,0 hPa 0,0 l/m 0 min 0 min 0 W/m 12,9 km/h (3 Bft) 95,65 %
08.11.2022 22:58 14,3 C 13,3 C 9,4 C 84 % 1007,0 hPa 0,0 l/m 0 min 0 min 0 W/m 12,9 km/h (3 Bft) 97,87 %
08.11.2022 23:00 14,3 C 13,3 C 9,4 C 84 % 1007,0 hPa 0,0 l/m 0 min 0 min 0 W/m 16,1 km/h (3 Bft) 97,87 %
08.11.2022 23:02 14,3 C 13,3 C 9,4 C 84 % 1007,1 hPa 0,0 l/m 0 min 0 min 0 W/m 9,7 km/h (2 Bft) 93,62 %
08.11.2022 23:04 14,3 C 13,3 C 9,4 C 84 % 1007,1 hPa 0,0 l/m 0 min 0 min 0 W/m 12,9 km/h (3 Bft) 97,67 %
08.11.2022 23:06 14,3 C 13,3 C 9,4 C 84 % 1007,0 hPa 0,0 l/m 0 min 0 min 0 W/m 6,4 km/h (2 Bft) 97,87 %
08.11.2022 23:08 14,3 C 13,3 C 9,4 C 84 % 1007,1 hPa 0,0 l/m 0 min 0 min 0 W/m 12,9 km/h (3 Bft) 100,00 %
08.11.2022 23:10 14,3 C 13,3 C 9,4 C 84 % 1007,0 hPa 0,0 l/m 0 min 0 min 0 W/m 9,7 km/h (2 Bft) 100,00 %
08.11.2022 23:12 14,3 C 13,3 C 9,4 C 84 % 1007,0 hPa 0,0 l/m 0 min 0 min 0 W/m 12,9 km/h (3 Bft) 100,00 %
08.11.2022 23:14 14,3 C 13,3 C 9,4 C 84 % 1007,1 hPa 0,0 l/m 0 min 0 min 0 W/m 16,1 km/h (3 Bft) 97,87 %
08.11.2022 23:16 14,3 C 13,3 C 9,4 C 84 % 1007,0 hPa 0,0 l/m 0 min 0 min 0 W/m 9,7 km/h (2 Bft) 100,00 %
08.11.2022 23:18 14,3 C 13,3 C 9,4 C 84 % 1007,0 hPa 0,0 l/m 0 min 0 min 0 W/m 12,9 km/h (3 Bft) 100,00 %
08.11.2022 23:20 14,3 C 13,3 C 9,4 C 84 % 1007,0 hPa 0,0 l/m 0 min 0 min 0 W/m 6,4 km/h (2 Bft) 100,00 %
08.11.2022 23:22 14,3 C 13,3 C 9,4 C 84 % 1007,0 hPa 0,0 l/m 0 min 0 min 0 W/m 9,7 km/h (2 Bft) 100,00 %
08.11.2022 23:24 14,3 C 13,3 C 9,4 C 84 % 1007,0 hPa 0,0 l/m 0 min 0 min 0 W/m 12,9 km/h (3 Bft) 100,00 %
08.11.2022 23:26 14,3 C 13,3 C 9,4 C 84 % 1007,0 hPa 0,0 l/m 0 min 0 min 0 W/m 12,9 km/h (3 Bft) 100,00 %
08.11.2022 23:28 14,3 C 13,3 C 9,4 C 84 % 1007,0 hPa 0,0 l/m 0 min 0 min 0 W/m 6,4 km/h (2 Bft) 100,00 %
08.11.2022 23:30 14,3 C 13,3 C 9,4 C 84 % 1006,8 hPa 0,0 l/m 0 min 0 min 0 W/m 3,2 km/h (1 Bft) 100,00 %
08.11.2022 23:32 14,3 C 13,3 C 9,4 C 84 % 1006,8 hPa 0,0 l/m 0 min 0 min 0 W/m 6,4 km/h (2 Bft) 100,00 %
08.11.2022 23:34 14,3 C 13,3 C 9,4 C 84 % 1006,9 hPa 0,0 l/m 0 min 0 min 0 W/m 3,2 km/h (1 Bft) 100,00 %
08.11.2022 23:36 14,3 C 13,3 C 9,4 C 84 % 1006,8 hPa 0,0 l/m 0 min 0 min 0 W/m 12,9 km/h (3 Bft) 100,00 %
08.11.2022 23:38 14,3 C 13,3 C 9,4 C 84 % 1006,9 hPa 0,0 l/m 0 min 0 min 0 W/m 6,4 km/h (2 Bft) 100,00 %
08.11.2022 23:40 14,3 C 13,3 C 9,4 C 84 % 1006,9 hPa 0,0 l/m 0 min 0 min 0 W/m 6,4 km/h (2 Bft) 87,23 %
08.11.2022 23:42 14,3 C 13,3 C 9,4 C 84 % 1006,8 hPa 0,0 l/m 0 min 0 min 0 W/m 6,4 km/h (2 Bft) 68,89 %
08.11.2022 23:44 14,3 C 13,3 C 9,4 C 84 % 1006,8 hPa 0,0 l/m 0 min 0 min 0 W/m 12,9 km/h (3 Bft) 100,00 %
08.11.2022 23:46 14,3 C 13,3 C 9,4 C 84 % 1006,8 hPa 0,0 l/m 0 min 0 min 0 W/m 12,9 km/h (3 Bft) 97,87 %
08.11.2022 23:48 14,2 C 13,3 C 9,4 C 84 % 1006,8 hPa 0,0 l/m 0 min 0 min 0 W/m 12,9 km/h (3 Bft) 100,00 %
08.11.2022 23:50 14,2 C 13,3 C 9,4 C 84 % 1006,9 hPa 0,0 l/m 0 min 0 min 0 W/m 12,9 km/h (3 Bft) 100,00 %
08.11.2022 23:52 14,3 C 13,3 C 9,4 C 84 % 1006,9 hPa 0,0 l/m 0 min 0 min 0 W/m 6,4 km/h (2 Bft) 100,00 %
08.11.2022 23:54 14,2 C 13,3 C 9,4 C 85 % 1007,0 hPa 0,0 l/m 0 min 0 min 0 W/m 6,4 km/h (2 Bft) 100,00 %
08.11.2022 23:56 14,2 C 13,3 C 9,4 C 84 % 1006,9 hPa 0,0 l/m 0 min 0 min 0 W/m 6,4 km/h (2 Bft) 97,83 %
08.11.2022 23:58 14,2 C 13,3 C 9,4 C 85 % 1006,9 hPa 0,0 l/m 0 min 0 min 0 W/m 6,4 km/h (2 Bft) 100,00 %
_ Min-Zeit 07:32 00:36 03:56 14:59 17:04 - - - - 15:04 11:32
Minimum _ 10,7 C 10,0 C 6,7 C 73 % 1006,0 hPa - - - - 0,0 km/h (0 Bft) 52,38 %
_ Max-Zeit 15:14 13:08 14:51 04:14 00:00 00:00 14:04 12:32 13:14 08:00 00:02
Maximum _ 16,6 C 16,1 C 11,7 C 93 % 1011,9 hPa 0,0 l/m 4 min 2 min 322 W/m 38,6 km/h
S-SO (5 Bft)
100,00 %
Durchschnitt _ 13,4 C 12,8 C 9,1 C 84 % 1008,0 hPa #0,0 l/m #1:01 h #17 min. 105 W/m 14,4 km/h (3 Bft) 97,07 %
© 2022 W. Hausmann